Time,TemperatureF,DewpointF,PressureIn,WindDirection,WindDirectionDegrees,WindSpeedMPH,WindSpeedGustMPH,Humidity,HourlyPrecipIn,Conditions,Clouds,dailyrainin,SoftwareType,DateUTC
2013-08-14 00:01:00,84.0,81.0,29.93,SSW,202,11.0,11.0,91,0.00,,,0.00,TxWx,2013-08-14 05:01:00,
2013-08-14 00:02:00,84.0,81.0,29.93,SSE,157,6.0,6.0,91,0.00,,,0.00,TxWx,2013-08-14 05:02:00,
2013-08-14 00:03:00,84.0,81.0,29.93,SSW,202,5.0,5.0,91,0.00,,,0.00,TxWx,2013-08-14 05:03:00,
2013-08-14 00:05:00,84.0,81.0,29.93,SW,225,8.0,8.0,91,0.00,,,0.00,TxWx,2013-08-14 05:05:00,
2013-08-14 00:06:00,84.0,81.0,29.93,SSE,157,6.0,6.0,91,0.00,,,0.00,TxWx,2013-08-14 05:06:00,
2013-08-14 00:07:00,84.0,81.0,29.93,SSW,202,10.0,11.0,91,0.00,,,0.00,TxWx,2013-08-14 05:07:00,
2013-08-14 00:08:00,84.0,81.0,29.93,SSW,202,7.0,9.0,91,0.00,,,0.00,TxWx,2013-08-14 05:08:00,
2013-08-14 00:09:00,84.0,81.0,29.93,SSW,202,9.0,10.0,91,0.00,,,0.00,TxWx,2013-08-14 05:09:00,
2013-08-14 00:11:00,84.0,81.0,29.93,SSW,202,8.0,10.0,91,0.00,,,0.00,TxWx,2013-08-14 05:11:00,
2013-08-14 00:13:00,84.0,81.0,29.93,SSE,157,7.0,7.0,91,0.00,,,0.00,TxWx,2013-08-14 05:13:00,
2013-08-14 00:14:00,84.0,81.0,29.93,SSW,202,10.0,10.0,91,0.00,,,0.00,TxWx,2013-08-14 05:14:00,
2013-08-14 00:15:00,84.0,81.0,29.93,SSE,157,5.0,5.0,91,0.00,,,0.00,TxWx,2013-08-14 05:15:00,
2013-08-14 00:16:00,84.0,81.0,29.93,South,180,12.0,12.0,91,0.00,,,0.00,TxWx,2013-08-14 05:16:00,
2013-08-14 00:17:00,84.0,81.0,29.92,SSW,202,7.0,8.0,91,0.00,,,0.00,TxWx,2013-08-14 05:17:00,
2013-08-14 00:18:00,84.0,81.0,29.92,SSE,157,7.0,9.0,91,0.00,,,0.00,TxWx,2013-08-14 05:18:00,
2013-08-14 00:20:00,84.0,81.0,29.92,SW,225,8.0,8.0,91,0.00,,,0.00,TxWx,2013-08-14 05:20:00,
2013-08-14 00:21:00,84.0,81.0,29.92,South,180,8.0,8.0,91,0.00,,,0.00,TxWx,2013-08-14 05:21:00,
2013-08-14 00:24:00,84.0,81.0,29.92,South,180,10.0,11.0,91,0.00,,,0.00,TxWx,2013-08-14 05:24:00,
2013-08-14 00:25:00,84.0,81.0,29.92,SSW,202,17.0,17.0,91,0.00,,,0.00,TxWx,2013-08-14 05:25:00,
2013-08-14 00:26:00,84.0,81.0,29.92,South,180,9.0,10.0,91,0.00,,,0.00,TxWx,2013-08-14 05:26:00,
2013-08-14 00:28:00,84.0,81.0,29.92,SSW,202,9.0,10.0,91,0.00,,,0.00,TxWx,2013-08-14 05:28:00,
2013-08-14 00:31:00,84.0,81.0,29.92,South,180,10.0,10.0,91,0.00,,,0.00,TxWx,2013-08-14 05:31:00,
2013-08-14 00:32:00,84.0,81.0,29.92,SSE,157,10.0,10.0,91,0.00,,,0.00,TxWx,2013-08-14 05:32:00,
2013-08-14 00:33:00,84.0,81.0,29.92,South,180,10.0,10.0,91,0.00,,,0.00,TxWx,2013-08-14 05:33:00,
2013-08-14 00:35:00,84.0,81.0,29.92,SE,135,5.0,6.0,91,0.00,,,0.00,TxWx,2013-08-14 05:35:00,
2013-08-14 00:38:00,84.0,81.0,29.92,South,180,6.0,6.0,91,0.00,,,0.00,TxWx,2013-08-14 05:38:00,
2013-08-14 00:39:00,84.0,81.0,29.92,SSW,202,5.0,8.0,91,0.00,,,0.00,TxWx,2013-08-14 05:39:00,
2013-08-14 00:42:00,84.0,81.0,29.92,South,180,11.0,11.0,91,0.00,,,0.00,TxWx,2013-08-14 05:42:00,
2013-08-14 00:44:00,84.0,81.0,29.93,SSW,202,6.0,6.0,91,0.00,,,0.00,TxWx,2013-08-14 05:44:00,
2013-08-14 00:45:00,84.0,81.0,29.92,SSW,202,5.0,5.0,91,0.00,,,0.00,TxWx,2013-08-14 05:45:00,
2013-08-14 00:50:00,84.0,81.0,29.93,SSW,202,10.0,10.0,91,0.00,,,0.00,TxWx,2013-08-14 05:50:00,
2013-08-14 00:52:00,84.0,81.0,29.93,SSW,202,10.0,10.0,90,0.00,,,0.00,TxWx,2013-08-14 05:52:00,
2013-08-14 00:54:00,84.0,81.0,29.92,South,180,9.0,9.0,90,0.00,,,0.00,TxWx,2013-08-14 05:54:00,
2013-08-14 00:55:00,84.0,81.0,29.92,WSW,247,6.0,6.0,90,0.00,,,0.00,TxWx,2013-08-14 05:55:00,
2013-08-14 00:56:00,84.0,81.0,29.92,SSE,157,9.0,10.0,90,0.00,,,0.00,TxWx,2013-08-14 05:56:00,
2013-08-14 00:58:00,84.0,81.0,29.92,South,180,6.0,6.0,90,0.00,,,0.00,TxWx,2013-08-14 05:58:00,
2013-08-14 01:00:00,84.0,81.0,29.92,SSW,202,10.0,10.0,90,0.00,,,0.00,TxWx,2013-08-14 06:00:00,
2013-08-14 01:02:00,84.0,81.0,29.92,South,180,6.0,7.0,90,0.00,,,0.00,TxWx,2013-08-14 06:02:00,
2013-08-14 01:05:00,84.0,81.0,29.92,South,180,11.0,11.0,90,0.00,,,0.00,TxWx,2013-08-14 06:05:00,
2013-08-14 01:07:00,84.0,81.0,29.92,SSW,202,6.0,8.0,90,0.00,,,0.00,TxWx,2013-08-14 06:07:00,
2013-08-14 01:08:00,84.0,81.0,29.92,SSW,202,9.0,11.0,90,0.00,,,0.00,TxWx,2013-08-14 06:08:00,
2013-08-14 01:10:00,84.0,81.0,29.92,SSW,202,5.0,6.0,90,0.00,,,0.00,TxWx,2013-08-14 06:10:00,
2013-08-14 01:12:00,84.0,81.0,29.92,SSW,202,6.0,6.0,90,0.00,,,0.00,TxWx,2013-08-14 06:12:00,
2013-08-14 01:13:00,84.0,81.0,29.92,SSW,202,11.0,11.0,90,0.00,,,0.00,TxWx,2013-08-14 06:13:00,
2013-08-14 01:14:00,84.0,81.0,29.92,SSW,202,8.0,8.0,90,0.00,,,0.00,TxWx,2013-08-14 06:14:00,
2013-08-14 01:18:00,84.0,81.0,29.92,South,180,8.0,8.0,90,0.00,,,0.00,TxWx,2013-08-14 06:18:00,
2013-08-14 01:19:00,84.0,81.0,29.92,SSW,202,11.0,11.0,90,0.00,,,0.00,TxWx,2013-08-14 06:19:00,
2013-08-14 01:20:00,84.0,81.0,29.92,SSW,202,6.0,6.0,90,0.00,,,0.00,TxWx,2013-08-14 06:20:00,
2013-08-14 01:23:00,84.0,81.0,29.92,SSW,202,10.0,11.0,90,0.00,,,0.00,TxWx,2013-08-14 06:23:00,
2013-08-14 01:26:00,84.0,81.0,29.92,SSW,202,8.0,10.0,90,0.00,,,0.00,TxWx,2013-08-14 06:26:00,
2013-08-14 01:28:00,84.0,81.0,29.91,SSE,157,7.0,8.0,90,0.00,,,0.00,TxWx,2013-08-14 06:28:00,
2013-08-14 01:30:00,84.0,81.0,29.91,SSW,202,8.0,8.0,90,0.00,,,0.00,TxWx,2013-08-14 06:30:00,
2013-08-14 01:32:00,84.0,81.0,29.91,SSW,202,6.0,7.0,90,0.00,,,0.00,TxWx,2013-08-14 06:32:00,
2013-08-14 01:33:00,84.0,81.0,29.91,SW,225,4.0,5.0,90,0.00,,,0.00,TxWx,2013-08-14 06:33:00,
2013-08-14 01:34:00,84.0,81.0,29.91,South,180,15.0,15.0,90,0.00,,,0.00,TxWx,2013-08-14 06:34:00,
2013-08-14 01:35:00,84.0,81.0,29.91,SW,225,7.0,8.0,90,0.00,,,0.00,TxWx,2013-08-14 06:35:00,
2013-08-14 01:38:00,84.0,81.0,29.91,SSW,202,9.0,9.0,90,0.00,,,0.00,TxWx,2013-08-14 06:38:00,
2013-08-14 01:39:00,84.0,81.0,29.91,SW,225,11.0,14.0,90,0.00,,,0.00,TxWx,2013-08-14 06:39:00,
2013-08-14 01:40:00,83.0,80.0,29.91,SSE,157,12.0,15.0,90,0.00,,,0.00,TxWx,2013-08-14 06:40:00,
2013-08-14 01:45:00,83.0,80.0,29.91,South,180,10.0,10.0,90,0.00,,,0.00,TxWx,2013-08-14 06:45:00,
2013-08-14 01:46:00,83.0,80.0,29.91,SSW,202,11.0,11.0,90,0.00,,,0.00,TxWx,2013-08-14 06:46:00,
2013-08-14 01:47:00,83.0,80.0,29.91,SW,225,9.0,9.0,90,0.00,,,0.00,TxWx,2013-08-14 06:47:00,
2013-08-14 01:49:00,83.0,80.0,29.91,South,180,10.0,10.0,90,0.00,,,0.00,TxWx,2013-08-14 06:49:00,
2013-08-14 01:51:00,83.0,80.0,29.91,SSW,202,8.0,8.0,90,0.00,,,0.00,TxWx,2013-08-14 06:51:00,
2013-08-14 01:52:00,83.0,80.0,29.91,SW,225,8.0,10.0,90,0.00,,,0.00,TxWx,2013-08-14 06:52:00,
2013-08-14 01:53:00,83.0,80.0,29.91,SSW,202,5.0,5.0,90,0.00,,,0.00,TxWx,2013-08-14 06:53:00,
2013-08-14 01:54:00,83.0,80.0,29.91,SW,225,6.0,8.0,90,0.00,,,0.00,TxWx,2013-08-14 06:54:00,
2013-08-14 01:56:00,83.0,80.0,29.91,SW,225,5.0,6.0,90,0.00,,,0.00,TxWx,2013-08-14 06:56:00,
2013-08-14 01:58:00,83.0,80.0,29.91,SW,225,9.0,9.0,90,0.00,,,0.00,TxWx,2013-08-14 06:58:00,
2013-08-14 01:59:00,83.0,80.0,29.91,SSW,202,7.0,9.0,90,0.00,,,0.00,TxWx,2013-08-14 06:59:00,
2013-08-14 02:00:00,83.0,80.0,29.91,SSE,157,8.0,9.0,90,0.00,,,0.00,TxWx,2013-08-14 07:00:00,
2013-08-14 02:02:00,83.0,80.0,29.91,SSW,202,6.0,6.0,90,0.00,,,0.00,TxWx,2013-08-14 07:02:00,
2013-08-14 02:05:00,83.0,80.0,29.91,SSE,157,5.0,6.0,90,0.00,,,0.00,TxWx,2013-08-14 07:05:00,
2013-08-14 02:06:00,83.0,80.0,29.91,South,180,6.0,8.0,90,0.00,,,0.00,TxWx,2013-08-14 07:06:00,
2013-08-14 02:09:00,83.0,80.0,29.91,SSW,202,8.0,8.0,90,0.00,,,0.00,TxWx,2013-08-14 07:09:00,
2013-08-14 02:10:00,83.0,80.0,29.91,WSW,247,5.0,6.0,90,0.00,,,0.00,TxWx,2013-08-14 07:10:00,
2013-08-14 02:12:00,83.0,80.0,29.91,SSE,157,7.0,7.0,90,0.00,,,0.00,TxWx,2013-08-14 07:12:00,
2013-08-14 02:14:00,83.0,80.0,29.91,SSW,202,8.0,9.0,91,0.00,,,0.00,TxWx,2013-08-14 07:14:00,
2013-08-14 02:17:00,83.0,80.0,29.91,SW,225,6.0,6.0,91,0.00,,,0.00,TxWx,2013-08-14 07:17:00,
2013-08-14 02:19:00,83.0,80.0,29.91,South,180,8.0,8.0,91,0.00,,,0.00,TxWx,2013-08-14 07:19:00,
2013-08-14 02:20:00,83.0,80.0,29.91,SSW,202,11.0,11.0,91,0.00,,,0.00,TxWx,2013-08-14 07:20:00,
2013-08-14 02:21:00,83.0,80.0,29.91,SSW,202,10.0,10.0,91,0.00,,,0.00,TxWx,2013-08-14 07:21:00,
2013-08-14 02:22:00,83.0,80.0,29.91,SSE,157,5.0,6.0,91,0.00,,,0.00,TxWx,2013-08-14 07:22:00,
2013-08-14 02:24:00,83.0,80.0,29.91,SSW,202,6.0,6.0,91,0.00,,,0.00,TxWx,2013-08-14 07:24:00,
2013-08-14 02:26:00,83.0,80.0,29.91,SSW,202,7.0,7.0,91,0.00,,,0.00,TxWx,2013-08-14 07:26:00,
2013-08-14 02:29:00,83.0,80.0,29.91,SSW,202,6.0,6.0,91,0.00,,,0.00,TxWx,2013-08-14 07:29:00,
2013-08-14 02:30:00,83.0,80.0,29.91,SW,225,5.0,5.0,91,0.00,,,0.00,TxWx,2013-08-14 07:30:00,
2013-08-14 02:31:00,83.0,80.0,29.91,WSW,247,7.0,7.0,91,0.00,,,0.00,TxWx,2013-08-14 07:31:00,
2013-08-14 02:32:00,83.0,80.0,29.91,SSW,202,8.0,9.0,91,0.00,,,0.00,TxWx,2013-08-14 07:32:00,
2013-08-14 02:35:00,83.0,80.0,29.91,SSW,202,11.0,11.0,91,0.00,,,0.00,TxWx,2013-08-14 07:35:00,
2013-08-14 02:36:00,83.0,80.0,29.91,WSW,247,6.0,7.0,91,0.00,,,0.00,TxWx,2013-08-14 07:36:00,
2013-08-14 02:37:00,83.0,80.0,29.91,SSW,202,10.0,10.0,91,0.00,,,0.00,TxWx,2013-08-14 07:37:00,
2013-08-14 02:39:00,83.0,80.0,29.91,SSW,202,6.0,6.0,91,0.00,,,0.00,TxWx,2013-08-14 07:39:00,
2013-08-14 02:40:00,83.0,80.0,29.91,SSW,202,6.0,6.0,91,0.00,,,0.00,TxWx,2013-08-14 07:40:00,
2013-08-14 02:42:00,83.0,80.0,29.91,SW,225,5.0,5.0,91,0.00,,,0.00,TxWx,2013-08-14 07:42:00,
2013-08-14 02:43:00,83.0,80.0,29.91,South,180,4.0,4.0,91,0.00,,,0.00,TxWx,2013-08-14 07:43:00,
2013-08-14 02:44:00,83.0,80.0,29.91,SSW,202,5.0,5.0,91,0.00,,,0.00,TxWx,2013-08-14 07:44:00,
2013-08-14 02:46:00,83.0,80.0,29.91,WSW,247,4.0,5.0,91,0.00,,,0.00,TxWx,2013-08-14 07:46:00,
2013-08-14 02:47:00,83.0,80.0,29.91,SSW,202,5.0,5.0,92,0.00,,,0.00,TxWx,2013-08-14 07:47:00,
2013-08-14 02:48:00,83.0,80.0,29.91,SSW,202,5.0,5.0,92,0.00,,,0.00,TxWx,2013-08-14 07:48:00,
2013-08-14 02:49:00,83.0,80.0,29.91,SW,225,7.0,7.0,92,0.00,,,0.00,TxWx,2013-08-14 07:49:00,
2013-08-14 02:51:00,83.0,80.0,29.91,SW,225,10.0,10.0,92,0.00,,,0.00,TxWx,2013-08-14 07:51:00,
2013-08-14 02:53:00,83.0,80.0,29.91,WSW,247,5.0,5.0,92,0.00,,,0.00,TxWx,2013-08-14 07:53:00,
2013-08-14 02:54:00,83.0,80.0,29.91,SW,225,5.0,5.0,92,0.00,,,0.00,TxWx,2013-08-14 07:54:00,
2013-08-14 02:55:00,83.0,80.0,29.91,SW,225,3.0,3.0,92,0.00,,,0.00,TxWx,2013-08-14 07:55:00,
2013-08-14 02:57:00,83.0,80.0,29.91,SSW,202,8.0,9.0,92,0.00,,,0.00,TxWx,2013-08-14 07:57:00,
2013-08-14 02:58:00,83.0,80.0,29.91,SW,225,11.0,11.0,92,0.00,,,0.00,TxWx,2013-08-14 07:58:00,
2013-08-14 03:00:00,83.0,80.0,29.91,West,270,3.0,4.0,92,0.00,,,0.00,TxWx,2013-08-14 08:00:00,
2013-08-14 03:02:00,83.0,80.0,29.91,SSW,202,6.0,6.0,92,0.00,,,0.00,TxWx,2013-08-14 08:02:00,
2013-08-14 03:06:00,83.0,80.0,29.92,SSW,202,8.0,8.0,92,0.00,,,0.00,TxWx,2013-08-14 08:06:00,
2013-08-14 03:07:00,83.0,80.0,29.91,SSW,202,10.0,10.0,92,0.00,,,0.00,TxWx,2013-08-14 08:07:00,
2013-08-14 03:08:00,83.0,80.0,29.91,SSW,202,9.0,10.0,92,0.00,,,0.00,TxWx,2013-08-14 08:08:00,
2013-08-14 03:09:00,83.0,80.0,29.92,SSW,202,7.0,8.0,92,0.00,,,0.00,TxWx,2013-08-14 08:09:00,
2013-08-14 03:10:00,83.0,80.0,29.92,SSW,202,6.0,6.0,92,0.00,,,0.00,TxWx,2013-08-14 08:10:00,
2013-08-14 03:11:00,83.0,80.0,29.92,SSE,157,5.0,5.0,92,0.00,,,0.00,TxWx,2013-08-14 08:11:00,
2013-08-14 03:13:00,83.0,80.0,29.92,SW,225,8.0,11.0,92,0.00,,,0.00,TxWx,2013-08-14 08:13:00,
2013-08-14 03:14:00,83.0,80.0,29.92,SSW,202,10.0,10.0,92,0.00,,,0.00,TxWx,2013-08-14 08:14:00,
2013-08-14 03:16:00,83.0,80.0,29.92,SW,225,7.0,7.0,92,0.00,,,0.00,TxWx,2013-08-14 08:16:00,
2013-08-14 03:17:00,83.0,80.0,29.92,SSW,202,6.0,7.0,92,0.00,,,0.00,TxWx,2013-08-14 08:17:00,
2013-08-14 03:18:00,83.0,80.0,29.92,South,180,4.0,4.0,92,0.00,,,0.00,TxWx,2013-08-14 08:18:00,
2013-08-14 03:20:00,83.0,80.0,29.92,South,180,6.0,7.0,92,0.00,,,0.00,TxWx,2013-08-14 08:20:00,
2013-08-14 03:21:00,83.0,80.0,29.92,SW,225,6.0,6.0,92,0.00,,,0.00,TxWx,2013-08-14 08:21:00,
2013-08-14 03:23:00,83.0,80.0,29.91,SSW,202,10.0,10.0,92,0.00,,,0.00,TxWx,2013-08-14 08:23:00,
2013-08-14 03:24:00,83.0,80.0,29.91,SSW,202,14.0,14.0,92,0.00,,,0.00,TxWx,2013-08-14 08:24:00,
2013-08-14 03:26:00,83.0,80.0,29.91,SW,225,6.0,6.0,92,0.00,,,0.00,TxWx,2013-08-14 08:26:00,
2013-08-14 03:27:00,83.0,80.0,29.91,WSW,247,5.0,6.0,92,0.00,,,0.00,TxWx,2013-08-14 08:27:00,
2013-08-14 03:29:00,83.0,80.0,29.91,SW,225,8.0,10.0,92,0.00,,,0.00,TxWx,2013-08-14 08:29:00,
2013-08-14 03:30:00,83.0,80.0,29.91,SSW,202,8.0,8.0,92,0.00,,,0.00,TxWx,2013-08-14 08:30:00,
2013-08-14 03:31:00,83.0,80.0,29.91,SSW,202,6.0,6.0,92,0.00,,,0.00,TxWx,2013-08-14 08:31:00,
2013-08-14 03:32:00,83.0,81.0,29.91,WSW,247,4.0,4.0,93,0.00,,,0.00,TxWx,2013-08-14 08:32:00,
2013-08-14 03:33:00,83.0,81.0,29.91,SW,225,5.0,5.0,93,0.00,,,0.00,TxWx,2013-08-14 08:33:00,
2013-08-14 03:35:00,83.0,81.0,29.91,South,180,6.0,6.0,93,0.00,,,0.00,TxWx,2013-08-14 08:35:00,
2013-08-14 03:37:00,83.0,81.0,29.91,SSW,202,10.0,10.0,93,0.00,,,0.00,TxWx,2013-08-14 08:37:00,
2013-08-14 03:39:00,83.0,81.0,29.91,SSW,202,9.0,11.0,93,0.00,,,0.00,TxWx,2013-08-14 08:39:00,
2013-08-14 03:40:00,83.0,81.0,29.91,SSW,202,10.0,10.0,93,0.00,,,0.00,TxWx,2013-08-14 08:40:00,
2013-08-14 03:43:00,83.0,81.0,29.92,SSW,202,5.0,5.0,93,0.00,,,0.00,TxWx,2013-08-14 08:43:00,
2013-08-14 03:45:00,83.0,81.0,29.91,SW,225,5.0,5.0,93,0.00,,,0.00,TxWx,2013-08-14 08:45:00,
2013-08-14 03:46:00,82.0,80.0,29.91,WSW,247,8.0,8.0,93,0.00,,,0.00,TxWx,2013-08-14 08:46:00,
2013-08-14 03:47:00,82.0,80.0,29.91,SSW,202,6.0,6.0,93,0.00,,,0.00,TxWx,2013-08-14 08:47:00,
2013-08-14 03:51:00,82.0,80.0,29.91,SSW,202,5.0,5.0,93,0.00,,,0.00,TxWx,2013-08-14 08:51:00,
2013-08-14 03:52:00,82.0,80.0,29.91,SSW,202,11.0,11.0,93,0.00,,,0.00,TxWx,2013-08-14 08:52:00,
2013-08-14 03:53:00,82.0,80.0,29.91,South,180,6.0,7.0,93,0.00,,,0.00,TxWx,2013-08-14 08:53:00,
2013-08-14 03:56:00,82.0,80.0,29.91,WSW,247,5.0,6.0,93,0.00,,,0.00,TxWx,2013-08-14 08:56:00,
2013-08-14 03:57:00,82.0,80.0,29.91,SSW,202,6.0,6.0,93,0.00,,,0.00,TxWx,2013-08-14 08:57:00,
2013-08-14 03:58:00,82.0,80.0,29.91,SSW,202,9.0,10.0,93,0.00,,,0.00,TxWx,2013-08-14 08:58:00,
2013-08-14 04:00:00,82.0,80.0,29.91,SSW,202,8.0,8.0,93,0.00,,,0.00,TxWx,2013-08-14 09:00:00,
2013-08-14 04:02:00,82.0,80.0,29.91,SW,225,6.0,6.0,93,0.00,,,0.00,TxWx,2013-08-14 09:02:00,
2013-08-14 04:05:00,82.0,80.0,29.91,SSW,202,5.0,6.0,93,0.00,,,0.00,TxWx,2013-08-14 09:05:00,
2013-08-14 04:06:00,82.0,80.0,29.91,SSW,202,5.0,5.0,93,0.00,,,0.00,TxWx,2013-08-14 09:06:00,
2013-08-14 04:07:00,82.0,80.0,29.91,West,270,3.0,4.0,93,0.00,,,0.00,TxWx,2013-08-14 09:07:00,
2013-08-14 04:08:00,82.0,80.0,29.91,SW,225,2.0,2.0,93,0.00,,,0.00,TxWx,2013-08-14 09:08:00,
2013-08-14 04:09:00,82.0,80.0,29.91,SW,225,6.0,6.0,93,0.00,,,0.00,TxWx,2013-08-14 09:09:00,
2013-08-14 04:11:00,82.0,80.0,29.91,SSW,202,5.0,6.0,93,0.00,,,0.00,TxWx,2013-08-14 09:11:00,
2013-08-14 04:12:00,82.0,80.0,29.91,SW,225,6.0,6.0,93,0.00,,,0.00,TxWx,2013-08-14 09:12:00,
2013-08-14 04:13:00,82.0,80.0,29.91,West,270,8.0,10.0,93,0.00,,,0.00,TxWx,2013-08-14 09:13:00,
2013-08-14 04:17:00,82.0,80.0,29.91,SW,225,6.0,6.0,93,0.00,,,0.00,TxWx,2013-08-14 09:17:00,
2013-08-14 04:18:00,82.0,80.0,29.91,SSW,202,6.0,6.0,93,0.00,,,0.00,TxWx,2013-08-14 09:18:00,
2013-08-14 04:21:00,82.0,80.0,29.91,SSW,202,7.0,7.0,93,0.00,,,0.00,TxWx,2013-08-14 09:21:00,
2013-08-14 04:22:00,82.0,80.0,29.91,SW,225,8.0,8.0,93,0.00,,,0.00,TxWx,2013-08-14 09:22:00,
2013-08-14 04:24:00,82.0,80.0,29.91,SSW,202,10.0,10.0,93,0.00,,,0.00,TxWx,2013-08-14 09:24:00,
2013-08-14 04:25:00,82.0,80.0,29.91,SSW,202,8.0,8.0,93,0.00,,,0.00,TxWx,2013-08-14 09:25:00,
2013-08-14 04:26:00,82.0,80.0,29.91,WSW,247,6.0,6.0,93,0.00,,,0.00,TxWx,2013-08-14 09:26:00,
2013-08-14 04:28:00,82.0,80.0,29.91,WSW,247,6.0,6.0,93,0.00,,,0.00,TxWx,2013-08-14 09:28:00,
2013-08-14 04:29:00,82.0,80.0,29.91,SW,225,5.0,5.0,93,0.00,,,0.00,TxWx,2013-08-14 09:29:00,
2013-08-14 04:31:00,82.0,80.0,29.91,SSW,202,8.0,8.0,93,0.00,,,0.00,TxWx,2013-08-14 09:31:00,
2013-08-14 04:33:00,82.0,80.0,29.91,SW,225,7.0,7.0,93,0.00,,,0.00,TxWx,2013-08-14 09:33:00,
2013-08-14 04:36:00,82.0,80.0,29.91,SSW,202,7.0,8.0,93,0.00,,,0.00,TxWx,2013-08-14 09:36:00,
2013-08-14 04:37:00,82.0,80.0,29.91,SSW,202,6.0,6.0,93,0.00,,,0.00,TxWx,2013-08-14 09:37:00,
2013-08-14 04:38:00,82.0,80.0,29.91,SW,225,8.0,10.0,93,0.00,,,0.00,TxWx,2013-08-14 09:38:00,
2013-08-14 04:39:00,82.0,80.0,29.91,SW,225,6.0,6.0,93,0.00,,,0.00,TxWx,2013-08-14 09:39:00,
2013-08-14 04:43:00,82.0,80.0,29.91,WSW,247,6.0,7.0,93,0.00,,,0.00,TxWx,2013-08-14 09:43:00,
2013-08-14 04:44:00,82.0,80.0,29.91,South,180,7.0,7.0,93,0.00,,,0.00,TxWx,2013-08-14 09:44:00,
2013-08-14 04:45:00,82.0,80.0,29.91,WSW,247,8.0,8.0,93,0.00,,,0.00,TxWx,2013-08-14 09:45:00,
2013-08-14 04:46:00,82.0,80.0,29.91,SSW,202,3.0,3.0,93,0.00,,,0.00,TxWx,2013-08-14 09:46:00,
2013-08-14 04:49:00,82.0,80.0,29.91,SSW,202,10.0,10.0,93,0.00,,,0.00,TxWx,2013-08-14 09:49:00,
2013-08-14 04:50:00,82.0,80.0,29.91,WSW,247,5.0,5.0,93,0.00,,,0.00,TxWx,2013-08-14 09:50:00,
2013-08-14 04:51:00,82.0,80.0,29.91,SSW,202,6.0,6.0,93,0.00,,,0.00,TxWx,2013-08-14 09:51:00,
2013-08-14 04:52:00,82.0,80.0,29.91,SW,225,7.0,8.0,93,0.00,,,0.00,TxWx,2013-08-14 09:52:00,
2013-08-14 04:56:00,82.0,80.0,29.91,WSW,247,5.0,5.0,93,0.00,,,0.00,TxWx,2013-08-14 09:56:00,
2013-08-14 04:58:00,82.0,80.0,29.91,SW,225,6.0,6.0,93,0.00,,,0.00,TxWx,2013-08-14 09:58:00,
2013-08-14 05:00:00,82.0,80.0,29.91,SW,225,5.0,6.0,93,0.00,,,0.00,TxWx,2013-08-14 10:00:00,
2013-08-14 05:02:00,82.0,80.0,29.91,SW,225,6.0,7.0,93,0.00,,,0.00,TxWx,2013-08-14 10:02:00,
2013-08-14 05:03:00,82.0,80.0,29.91,SSW,202,5.0,6.0,93,0.00,,,0.00,TxWx,2013-08-14 10:03:00,
2013-08-14 05:04:00,82.0,80.0,29.91,South,180,7.0,8.0,93,0.00,,,0.00,TxWx,2013-08-14 10:04:00,
2013-08-14 05:05:00,82.0,80.0,29.91,SSW,202,6.0,8.0,94,0.00,,,0.00,TxWx,2013-08-14 10:05:00,
2013-08-14 05:07:00,82.0,80.0,29.91,South,180,9.0,9.0,94,0.00,,,0.00,TxWx,2013-08-14 10:07:00,
2013-08-14 05:08:00,82.0,80.0,29.91,SW,225,9.0,10.0,94,0.00,,,0.00,TxWx,2013-08-14 10:08:00,
2013-08-14 05:10:00,82.0,80.0,29.91,SW,225,8.0,8.0,94,0.00,,,0.00,TxWx,2013-08-14 10:10:00,
2013-08-14 05:11:00,82.0,80.0,29.91,SSW,202,8.0,9.0,94,0.00,,,0.00,TxWx,2013-08-14 10:11:00,
2013-08-14 05:13:00,82.0,80.0,29.91,SW,225,7.0,7.0,94,0.00,,,0.00,TxWx,2013-08-14 10:13:00,
2013-08-14 05:14:00,82.0,80.0,29.91,SSW,202,6.0,7.0,94,0.00,,,0.00,TxWx,2013-08-14 10:14:00,
2013-08-14 05:15:00,82.0,80.0,29.91,SSW,202,6.0,8.0,94,0.00,,,0.00,TxWx,2013-08-14 10:15:00,
2013-08-14 05:17:00,82.0,80.0,29.91,WSW,247,4.0,5.0,94,0.00,,,0.00,TxWx,2013-08-14 10:17:00,
2013-08-14 05:19:00,82.0,80.0,29.91,SSW,202,10.0,10.0,94,0.00,,,0.00,TxWx,2013-08-14 10:19:00,
2013-08-14 05:21:00,82.0,80.0,29.91,SSW,202,10.0,11.0,94,0.00,,,0.00,TxWx,2013-08-14 10:21:00,
2013-08-14 05:22:00,82.0,80.0,29.91,SSW,202,8.0,8.0,94,0.00,,,0.00,TxWx,2013-08-14 10:22:00,
2013-08-14 05:23:00,82.0,80.0,29.91,West,270,5.0,6.0,94,0.00,,,0.00,TxWx,2013-08-14 10:23:00,
2013-08-14 05:24:00,82.0,80.0,29.91,SW,225,3.0,3.0,94,0.00,,,0.00,TxWx,2013-08-14 10:24:00,
2013-08-14 05:26:00,82.0,80.0,29.91,SSW,202,8.0,8.0,94,0.00,,,0.00,TxWx,2013-08-14 10:26:00,
2013-08-14 05:28:00,82.0,80.0,29.92,SSW,202,6.0,7.0,94,0.00,,,0.00,TxWx,2013-08-14 10:28:00,
2013-08-14 05:29:00,82.0,80.0,29.92,SW,225,4.0,5.0,94,0.00,,,0.00,TxWx,2013-08-14 10:29:00,
2013-08-14 05:30:00,82.0,80.0,29.92,SW,225,3.0,4.0,94,0.00,,,0.00,TxWx,2013-08-14 10:30:00,
2013-08-14 05:33:00,82.0,80.0,29.92,South,180,4.0,5.0,94,0.00,,,0.00,TxWx,2013-08-14 10:33:00,
2013-08-14 05:34:00,82.0,80.0,29.92,South,180,5.0,5.0,94,0.00,,,0.00,TxWx,2013-08-14 10:34:00,
2013-08-14 05:35:00,82.0,80.0,29.92,SW,225,6.0,6.0,94,0.00,,,0.00,TxWx,2013-08-14 10:35:00,
2013-08-14 05:36:00,82.0,80.0,29.92,SSW,202,6.0,7.0,94,0.00,,,0.00,TxWx,2013-08-14 10:36:00,
2013-08-14 05:39:00,82.0,80.0,29.92,SW,225,8.0,8.0,94,0.00,,,0.00,TxWx,2013-08-14 10:39:00,
2013-08-14 05:40:00,82.0,80.0,29.92,SW,225,8.0,8.0,94,0.00,,,0.00,TxWx,2013-08-14 10:40:00,
2013-08-14 05:42:00,82.0,80.0,29.92,SSW,202,6.0,6.0,94,0.00,,,0.00,TxWx,2013-08-14 10:42:00,
2013-08-14 05:44:00,82.0,80.0,29.91,WSW,247,6.0,6.0,94,0.00,,,0.00,TxWx,2013-08-14 10:44:00,
2013-08-14 05:45:00,82.0,80.0,29.92,WSW,247,7.0,8.0,94,0.00,,,0.00,TxWx,2013-08-14 10:45:00,
2013-08-14 05:46:00,82.0,80.0,29.92,SSW,202,7.0,7.0,94,0.00,,,0.00,TxWx,2013-08-14 10:46:00,
2013-08-14 05:48:00,82.0,80.0,29.92,SSW,202,5.0,6.0,94,0.00,,,0.00,TxWx,2013-08-14 10:48:00,
2013-08-14 05:50:00,82.0,80.0,29.92,SSW,202,5.0,5.0,94,0.00,,,0.00,TxWx,2013-08-14 10:50:00,
2013-08-14 05:51:00,82.0,80.0,29.92,SW,225,5.0,5.0,94,0.00,,,0.00,TxWx,2013-08-14 10:51:00,
2013-08-14 05:54:00,82.0,80.0,29.92,SW,225,5.0,5.0,94,0.00,,,0.00,TxWx,2013-08-14 10:54:00,
2013-08-14 05:55:00,82.0,80.0,29.92,SW,225,8.0,8.0,94,0.00,,,0.00,TxWx,2013-08-14 10:55:00,
2013-08-14 05:59:00,82.0,80.0,29.91,SSW,202,5.0,6.0,94,0.00,,,0.00,TxWx,2013-08-14 10:59:00,
2013-08-14 06:00:00,82.0,80.0,29.91,SSW,202,4.0,5.0,94,0.00,,,0.00,TxWx,2013-08-14 11:00:00,
2013-08-14 06:01:00,82.0,80.0,29.91,SSW,202,4.0,4.0,94,0.00,,,0.00,TxWx,2013-08-14 11:01:00,
2013-08-14 06:02:00,82.0,80.0,29.91,WSW,247,4.0,5.0,94,0.00,,,0.00,TxWx,2013-08-14 11:02:00,
2013-08-14 06:03:00,82.0,80.0,29.91,WSW,247,5.0,6.0,94,0.00,,,0.00,TxWx,2013-08-14 11:03:00,
2013-08-14 06:04:00,82.0,80.0,29.91,SW,225,5.0,5.0,94,0.00,,,0.00,TxWx,2013-08-14 11:04:00,
2013-08-14 06:08:00,82.0,80.0,29.91,SW,225,3.0,3.0,95,0.00,,,0.00,TxWx,2013-08-14 11:08:00,
2013-08-14 06:09:00,82.0,80.0,29.91,SW,225,5.0,5.0,95,0.00,,,0.00,TxWx,2013-08-14 11:09:00,
2013-08-14 06:12:00,82.0,80.0,29.92,SSW,202,6.0,7.0,95,0.00,,,0.00,TxWx,2013-08-14 11:12:00,
2013-08-14 06:14:00,81.0,79.0,29.91,SSW,202,3.0,3.0,95,0.00,,,0.00,TxWx,2013-08-14 11:14:00,
2013-08-14 06:15:00,81.0,79.0,29.92,WSW,247,5.0,5.0,95,0.00,,,0.00,TxWx,2013-08-14 11:15:00,
2013-08-14 06:16:00,81.0,79.0,29.92,SSW,202,7.0,7.0,95,0.00,,,0.00,TxWx,2013-08-14 11:16:00,
2013-08-14 06:17:00,81.0,79.0,29.92,South,180,5.0,6.0,95,0.00,,,0.00,TxWx,2013-08-14 11:17:00,
2013-08-14 06:19:00,81.0,79.0,29.92,SW,225,5.0,6.0,95,0.00,,,0.00,TxWx,2013-08-14 11:19:00,
2013-08-14 06:20:00,81.0,79.0,29.92,SW,225,6.0,6.0,95,0.00,,,0.00,TxWx,2013-08-14 11:20:00,
2013-08-14 06:22:00,81.0,79.0,29.92,WSW,247,4.0,4.0,95,0.00,,,0.00,TxWx,2013-08-14 11:22:00,
2013-08-14 06:25:00,81.0,79.0,29.92,SW,225,4.0,4.0,95,0.00,,,0.00,TxWx,2013-08-14 11:25:00,
2013-08-14 06:26:00,81.0,79.0,29.92,SW,225,6.0,7.0,95,0.00,,,0.00,TxWx,2013-08-14 11:26:00,
2013-08-14 06:28:00,81.0,79.0,29.92,SW,225,3.0,4.0,95,0.00,,,0.00,TxWx,2013-08-14 11:28:00,
2013-08-14 06:31:00,81.0,6.0,29.92,SW,225,5.0,5.0,95,10.69,,,0.00,TxWx,2013-08-14 11:31:00,
2013-08-14 06:33:00,81.0,79.0,29.92,SW,225,5.0,5.0,95,0.00,,,0.00,TxWx,2013-08-14 11:33:00,
2013-08-14 06:34:00,81.0,79.0,29.92,WSW,247,2.0,3.0,95,0.00,,,0.00,TxWx,2013-08-14 11:34:00,
2013-08-14 06:37:00,81.0,79.0,29.92,WSW,247,2.0,3.0,95,0.00,,,0.00,TxWx,2013-08-14 11:37:00,
2013-08-14 06:38:00,81.0,79.0,29.92,WSW,247,1.0,2.0,95,0.00,,,0.00,TxWx,2013-08-14 11:38:00,
2013-08-14 06:40:00,81.0,79.0,29.92,SW,225,3.0,3.0,95,0.00,,,0.00,TxWx,2013-08-14 11:40:00,
2013-08-14 06:41:00,81.0,79.0,29.92,WSW,247,2.0,2.0,95,0.00,,,0.00,TxWx,2013-08-14 11:41:00,
2013-08-14 06:44:00,81.0,79.0,29.92,WSW,247,4.0,4.0,95,0.00,,,0.00,TxWx,2013-08-14 11:44:00,
2013-08-14 06:46:00,81.0,79.0,29.92,SW,225,3.0,3.0,95,0.00,,,0.00,TxWx,2013-08-14 11:46:00,
2013-08-14 06:47:00,81.0,79.0,29.92,SW,225,3.0,3.0,95,0.00,,,0.00,TxWx,2013-08-14 11:47:00,
2013-08-14 06:49:00,81.0,79.0,29.92,SW,225,3.0,3.0,95,0.00,,,0.00,TxWx,2013-08-14 11:49:00,
2013-08-14 06:52:00,81.0,79.0,29.92,SW,225,3.0,3.0,95,0.00,,,0.00,TxWx,2013-08-14 11:52:00,
2013-08-14 06:54:00,81.0,79.0,29.92,SW,225,5.0,5.0,95,0.00,,,0.00,TxWx,2013-08-14 11:54:00,
2013-08-14 06:55:00,81.0,79.0,29.92,SW,225,5.0,5.0,95,0.00,,,0.00,TxWx,2013-08-14 11:55:00,
2013-08-14 06:56:00,81.0,79.0,29.92,SW,225,3.0,3.0,95,0.00,,,0.00,TxWx,2013-08-14 11:56:00,
2013-08-14 06:58:00,81.0,79.0,29.92,SSW,202,3.0,3.0,95,0.00,,,0.00,TxWx,2013-08-14 11:58:00,
2013-08-14 06:59:00,81.0,79.0,29.92,SW,225,3.0,4.0,95,0.00,,,0.00,TxWx,2013-08-14 11:59:00,
2013-08-14 07:00:00,81.0,79.0,29.92,SW,225,3.0,3.0,95,0.00,,,0.00,TxWx,2013-08-14 12:00:00,
2013-08-14 07:02:00,81.0,79.0,29.92,SW,225,2.0,2.0,95,0.00,,,0.00,TxWx,2013-08-14 12:02:00,
2013-08-14 07:04:00,81.0,79.0,29.92,SW,225,2.0,3.0,95,0.00,,,0.00,TxWx,2013-08-14 12:04:00,
2013-08-14 07:05:00,81.0,79.0,29.92,WSW,247,3.0,3.0,95,0.00,,,0.00,TxWx,2013-08-14 12:05:00,
2013-08-14 07:06:00,81.0,79.0,29.92,WSW,247,3.0,4.0,95,0.00,,,0.00,TxWx,2013-08-14 12:06:00,
2013-08-14 07:08:00,81.0,79.0,29.92,WSW,247,3.0,3.0,95,0.00,,,0.00,TxWx,2013-08-14 12:08:00,
2013-08-14 07:09:00,81.0,79.0,29.92,WSW,247,3.0,3.0,95,0.00,,,0.00,TxWx,2013-08-14 12:09:00,
2013-08-14 07:11:00,81.0,79.0,29.92,WSW,247,2.0,3.0,95,0.00,,,0.00,TxWx,2013-08-14 12:11:00,
2013-08-14 07:12:00,81.0,79.0,29.92,WSW,247,2.0,3.0,95,0.00,,,0.00,TxWx,2013-08-14 12:12:00,
2013-08-14 07:15:00,81.0,79.0,29.92,West,270,2.0,3.0,95,0.00,,,0.00,TxWx,2013-08-14 12:15:00,
2013-08-14 07:16:00,81.0,79.0,29.92,West,270,3.0,3.0,95,0.00,,,0.00,TxWx,2013-08-14 12:16:00,
2013-08-14 07:17:00,81.0,79.0,29.92,WSW,247,1.0,2.0,95,0.00,,,0.00,TxWx,2013-08-14 12:17:00,
2013-08-14 07:18:00,81.0,79.0,29.92,West,270,2.0,3.0,95,0.00,,,0.00,TxWx,2013-08-14 12:18:00,
2013-08-14 07:21:00,81.0,79.0,29.92,WNW,292,3.0,3.0,95,0.00,,,0.00,TxWx,2013-08-14 12:21:00,
2013-08-14 07:22:00,81.0,79.0,29.93,WSW,247,4.0,4.0,95,0.00,,,0.00,TxWx,2013-08-14 12:22:00,
2013-08-14 07:23:00,81.0,79.0,29.92,WSW,247,4.0,4.0,95,0.00,,,0.00,TxWx,2013-08-14 12:23:00,
2013-08-14 07:26:00,81.0,79.0,29.93,West,270,2.0,3.0,95,0.00,,,0.00,TxWx,2013-08-14 12:26:00,
2013-08-14 07:27:00,81.0,79.0,29.93,WNW,292,2.0,2.0,95,0.00,,,0.00,TxWx,2013-08-14 12:27:00,
2013-08-14 07:28:00,81.0,79.0,29.93,WSW,247,2.0,2.0,96,0.00,,,0.00,TxWx,2013-08-14 12:28:00,
2013-08-14 07:31:00,81.0,80.0,29.93,WSW,247,3.0,3.0,96,0.00,,,0.00,TxWx,2013-08-14 12:31:00,
2013-08-14 07:32:00,81.0,80.0,29.93,WSW,247,4.0,4.0,96,0.00,,,0.00,TxWx,2013-08-14 12:32:00,
2013-08-14 07:33:00,81.0,80.0,29.93,WSW,247,3.0,3.0,96,0.00,,,0.00,TxWx,2013-08-14 12:33:00,
2013-08-14 07:35:00,81.0,80.0,29.93,WSW,247,3.0,3.0,96,0.00,,,0.00,TxWx,2013-08-14 12:35:00,
2013-08-14 07:36:00,81.0,80.0,29.93,WSW,247,3.0,3.0,96,0.00,,,0.00,TxWx,2013-08-14 12:36:00,
2013-08-14 07:38:00,81.0,80.0,29.93,WSW,247,2.0,3.0,96,0.00,,,0.00,TxWx,2013-08-14 12:38:00,
2013-08-14 07:42:00,81.0,80.0,29.93,WSW,247,2.0,2.0,96,0.00,,,0.00,TxWx,2013-08-14 12:42:00,
2013-08-14 07:43:00,81.0,80.0,29.93,WSW,247,2.0,2.0,96,0.00,,,0.00,TxWx,2013-08-14 12:43:00,
2013-08-14 07:44:00,81.0,80.0,29.93,WSW,247,2.0,2.0,96,0.00,,,0.00,TxWx,2013-08-14 12:44:00,
2013-08-14 07:46:00,81.0,80.0,29.93,SW,225,2.0,2.0,96,0.00,,,0.00,TxWx,2013-08-14 12:46:00,
2013-08-14 07:47:00,81.0,80.0,29.93,SW,225,3.0,3.0,96,0.00,,,0.00,TxWx,2013-08-14 12:47:00,
2013-08-14 07:49:00,81.0,80.0,29.93,SW,225,2.0,2.0,96,0.00,,,0.00,TxWx,2013-08-14 12:49:00,
2013-08-14 07:50:00,81.0,80.0,29.93,SW,225,2.0,2.0,96,0.00,,,0.00,TxWx,2013-08-14 12:50:00,
2013-08-14 07:52:00,81.0,80.0,29.93,WSW,247,3.0,3.0,96,0.00,,,0.00,TxWx,2013-08-14 12:52:00,
2013-08-14 07:54:00,81.0,80.0,29.94,SW,225,3.0,3.0,96,0.00,,,0.00,TxWx,2013-08-14 12:54:00,
2013-08-14 07:55:00,81.0,80.0,29.93,WSW,247,1.0,2.0,96,0.00,,,0.00,TxWx,2013-08-14 12:55:00,
2013-08-14 07:57:00,81.0,80.0,29.93,SSW,202,2.0,2.0,96,0.00,,,0.00,TxWx,2013-08-14 12:57:00,
2013-08-14 07:58:00,81.0,80.0,29.93,WSW,247,3.0,3.0,96,0.00,,,0.00,TxWx,2013-08-14 12:58:00,
2013-08-14 08:00:00,81.0,80.0,29.94,SW,225,3.0,3.0,96,0.00,,,0.00,TxWx,2013-08-14 13:00:00,
2013-08-14 08:01:00,81.0,80.0,29.94,SW,225,2.0,3.0,96,0.00,,,0.00,TxWx,2013-08-14 13:01:00,
2013-08-14 08:03:00,81.0,80.0,29.94,SW,225,3.0,3.0,96,0.00,,,0.00,TxWx,2013-08-14 13:03:00,
2013-08-14 08:05:00,81.0,80.0,29.93,SW,225,3.0,3.0,96,0.00,,,0.00,TxWx,2013-08-14 13:05:00,
2013-08-14 08:07:00,81.0,80.0,29.93,SW,225,2.0,2.0,96,0.00,,,0.00,TxWx,2013-08-14 13:07:00,
2013-08-14 08:08:00,81.0,80.0,29.93,WSW,247,3.0,3.0,96,0.00,,,0.00,TxWx,2013-08-14 13:08:00,
2013-08-14 08:10:00,81.0,80.0,29.93,WSW,247,3.0,3.0,96,0.00,,,0.00,TxWx,2013-08-14 13:10:00,
2013-08-14 08:11:00,81.0,80.0,29.93,SW,225,3.0,3.0,96,0.00,,,0.00,TxWx,2013-08-14 13:11:00,
2013-08-14 08:13:00,81.0,80.0,29.93,WSW,247,3.0,3.0,96,0.00,,,0.00,TxWx,2013-08-14 13:13:00,
2013-08-14 08:14:00,81.0,80.0,29.93,West,270,3.0,3.0,96,0.00,,,0.00,TxWx,2013-08-14 13:14:00,
2013-08-14 08:15:00,81.0,80.0,29.93,South,180,3.0,3.0,96,0.00,,,0.00,TxWx,2013-08-14 13:15:00,
2013-08-14 08:18:00,81.0,80.0,29.93,SW,225,6.0,6.0,96,0.00,,,0.00,TxWx,2013-08-14 13:18:00,
2013-08-14 08:19:00,81.0,80.0,29.93,WSW,247,6.0,6.0,96,0.00,,,0.00,TxWx,2013-08-14 13:19:00,
2013-08-14 08:20:00,81.0,80.0,29.93,SSW,202,7.0,7.0,96,0.00,,,0.00,TxWx,2013-08-14 13:20:00,
2013-08-14 08:21:00,81.0,80.0,29.93,SSW,202,7.0,8.0,96,0.00,,,0.00,TxWx,2013-08-14 13:21:00,
2013-08-14 08:25:00,81.0,79.0,29.93,SW,225,8.0,8.0,95,0.00,,,0.00,TxWx,2013-08-14 13:25:00,
2013-08-14 08:26:00,81.0,79.0,29.93,WSW,247,4.0,5.0,95,0.00,,,0.00,TxWx,2013-08-14 13:26:00,
2013-08-14 08:28:00,82.0,80.0,29.93,WSW,247,5.0,5.0,95,0.00,,,0.00,TxWx,2013-08-14 13:28:00,
2013-08-14 08:31:00,82.0,80.0,29.93,SSW,202,3.0,3.0,95,0.00,,,0.00,TxWx,2013-08-14 13:31:00,
2013-08-14 08:32:00,82.0,80.0,29.93,SW,225,8.0,10.0,95,0.00,,,0.00,TxWx,2013-08-14 13:32:00,
2013-08-14 08:33:00,82.0,80.0,29.93,SW,225,5.0,5.0,95,0.00,,,0.00,TxWx,2013-08-14 13:33:00,
2013-08-14 08:34:00,82.0,80.0,29.93,SW,225,3.0,4.0,95,0.00,,,0.00,TxWx,2013-08-14 13:34:00,
2013-08-14 08:36:00,82.0,80.0,29.93,SW,225,3.0,4.0,95,0.00,,,0.00,TxWx,2013-08-14 13:36:00,
2013-08-14 08:39:00,82.0,80.0,29.93,SW,225,9.0,10.0,94,0.00,,,0.00,TxWx,2013-08-14 13:39:00,
2013-08-14 08:40:00,82.0,80.0,29.93,SSW,202,5.0,5.0,94,0.00,,,0.00,TxWx,2013-08-14 13:40:00,
2013-08-14 08:41:00,82.0,80.0,29.93,SW,225,6.0,6.0,94,0.00,,,0.00,TxWx,2013-08-14 13:41:00,
2013-08-14 08:42:00,82.0,80.0,29.94,WSW,247,5.0,5.0,94,0.00,,,0.00,TxWx,2013-08-14 13:42:00,
2013-08-14 08:45:00,82.0,80.0,29.94,WSW,247,4.0,5.0,94,0.00,,,0.00,TxWx,2013-08-14 13:45:00,
2013-08-14 08:46:00,82.0,80.0,29.94,SSW,202,4.0,5.0,93,0.00,,,0.00,TxWx,2013-08-14 13:46:00,
2013-08-14 08:47:00,82.0,80.0,29.94,South,180,5.0,5.0,93,0.00,,,0.00,TxWx,2013-08-14 13:47:00,
2013-08-14 08:49:00,83.0,81.0,29.94,SSW,202,3.0,3.0,93,0.00,,,0.00,TxWx,2013-08-14 13:49:00,
2013-08-14 08:51:00,83.0,81.0,29.94,SW,225,4.0,5.0,93,0.00,,,0.00,TxWx,2013-08-14 13:51:00,
2013-08-14 08:52:00,83.0,81.0,29.94,SW,225,2.0,3.0,93,0.00,,,0.00,TxWx,2013-08-14 13:52:00,
2013-08-14 08:53:00,83.0,81.0,29.94,SSW,202,8.0,8.0,93,0.00,,,0.00,TxWx,2013-08-14 13:53:00,
2013-08-14 08:54:00,83.0,80.0,29.94,SSW,202,5.0,5.0,92,0.00,,,0.00,TxWx,2013-08-14 13:54:00,
2013-08-14 08:55:00,83.0,80.0,29.95,SW,225,6.0,7.0,92,0.00,,,0.00,TxWx,2013-08-14 13:55:00,
2013-08-14 08:57:00,83.0,80.0,29.94,SW,225,6.0,6.0,92,0.00,,,0.00,TxWx,2013-08-14 13:57:00,
2013-08-14 08:58:00,83.0,80.0,29.94,SSW,202,5.0,5.0,92,0.00,,,0.00,TxWx,2013-08-14 13:58:00,
2013-08-14 08:59:00,83.0,80.0,29.95,WSW,247,4.0,4.0,92,0.00,,,0.00,TxWx,2013-08-14 13:59:00,
2013-08-14 09:00:00,83.0,80.0,29.94,SW,225,5.0,5.0,92,0.00,,,0.00,TxWx,2013-08-14 14:00:00,
2013-08-14 09:02:00,83.0,80.0,29.94,WSW,247,6.0,6.0,92,0.00,,,0.00,TxWx,2013-08-14 14:02:00,
2013-08-14 09:03:00,83.0,80.0,29.94,WSW,247,7.0,8.0,92,0.00,,,0.00,TxWx,2013-08-14 14:03:00,
2013-08-14 09:04:00,83.0,80.0,29.94,SW,225,7.0,7.0,91,0.00,,,0.00,TxWx,2013-08-14 14:04:00,
2013-08-14 09:05:00,83.0,80.0,29.94,West,270,6.0,6.0,91,0.00,,,0.00,TxWx,2013-08-14 14:05:00,
2013-08-14 09:06:00,83.0,80.0,29.94,SW,225,4.0,5.0,91,0.00,,,0.00,TxWx,2013-08-14 14:06:00,
2013-08-14 09:09:00,84.0,81.0,29.94,WSW,247,6.0,6.0,91,0.00,,,0.00,TxWx,2013-08-14 14:09:00,
2013-08-14 09:11:00,83.0,80.0,29.94,SW,225,7.0,7.0,90,0.00,,,0.00,TxWx,2013-08-14 14:11:00,
2013-08-14 09:14:00,84.0,81.0,29.94,SE,135,4.0,4.0,90,0.00,,,0.00,TxWx,2013-08-14 14:14:00,
2013-08-14 09:15:00,84.0,81.0,29.94,SSE,157,4.0,5.0,90,0.00,,,0.00,TxWx,2013-08-14 14:15:00,
2013-08-14 09:17:00,84.0,81.0,29.94,WSW,247,2.0,3.0,90,0.00,,,0.00,TxWx,2013-08-14 14:17:00,
2013-08-14 09:20:00,84.0,80.0,29.94,SW,225,6.0,6.0,89,0.00,,,0.00,TxWx,2013-08-14 14:20:00,
2013-08-14 09:21:00,84.0,80.0,29.94,SSW,202,6.0,7.0,89,0.00,,,0.00,TxWx,2013-08-14 14:21:00,
2013-08-14 09:22:00,84.0,80.0,29.94,SSW,202,4.0,5.0,88,0.00,,,0.00,TxWx,2013-08-14 14:22:00,
2013-08-14 09:23:00,84.0,80.0,29.94,SSW,202,8.0,8.0,89,0.00,,,0.00,TxWx,2013-08-14 14:23:00,
2013-08-14 09:25:00,84.0,80.0,29.94,WSW,247,8.0,8.0,88,0.00,,,0.00,TxWx,2013-08-14 14:25:00,
2013-08-14 09:26:00,84.0,80.0,29.94,SSW,202,8.0,8.0,88,0.00,,,0.00,TxWx,2013-08-14 14:26:00,
2013-08-14 09:27:00,84.0,80.0,29.94,SW,225,8.0,8.0,88,0.00,,,0.00,TxWx,2013-08-14 14:27:00,
2013-08-14 09:28:00,84.0,80.0,29.94,South,180,6.0,6.0,88,0.00,,,0.00,TxWx,2013-08-14 14:28:00,
2013-08-14 09:32:00,84.0,80.0,29.95,SW,225,7.0,8.0,87,0.00,,,0.00,TxWx,2013-08-14 14:32:00,
2013-08-14 09:34:00,85.0,80.0,29.95,SW,225,6.0,6.0,87,0.00,,,0.00,TxWx,2013-08-14 14:34:00,
2013-08-14 09:37:00,84.0,79.0,29.95,SSW,202,10.0,10.0,85,0.00,,,0.00,TxWx,2013-08-14 14:37:00,
2013-08-14 09:40:00,84.0,79.0,29.95,SW,225,9.0,10.0,85,0.00,,,0.00,TxWx,2013-08-14 14:40:00,
2013-08-14 09:41:00,84.0,79.0,29.95,SW,225,6.0,6.0,85,0.00,,,0.00,TxWx,2013-08-14 14:41:00,
2013-08-14 09:44:00,84.0,79.0,29.95,SSW,202,5.0,5.0,85,0.00,,,0.00,TxWx,2013-08-14 14:44:00,
2013-08-14 09:46:00,84.0,79.0,29.95,WSW,247,7.0,7.0,85,0.00,,,0.00,TxWx,2013-08-14 14:46:00,
2013-08-14 09:47:00,84.0,79.0,29.95,SW,225,5.0,5.0,85,0.00,,,0.00,TxWx,2013-08-14 14:47:00,
2013-08-14 09:49:00,84.0,79.0,29.95,SW,225,5.0,5.0,85,0.00,,,0.00,TxWx,2013-08-14 14:49:00,
2013-08-14 09:50:00,85.0,80.0,29.95,SSW,202,6.0,6.0,85,0.00,,,0.00,TxWx,2013-08-14 14:50:00,
2013-08-14 09:52:00,85.0,80.0,29.95,SSW,202,5.0,6.0,85,0.00,,,0.00,TxWx,2013-08-14 14:52:00,
2013-08-14 09:53:00,85.0,80.0,29.95,WSW,247,3.0,3.0,85,0.00,,,0.00,TxWx,2013-08-14 14:53:00,
2013-08-14 09:55:00,85.0,80.0,29.95,WSW,247,5.0,6.0,84,0.00,,,0.00,TxWx,2013-08-14 14:55:00,
2013-08-14 09:56:00,85.0,80.0,29.95,SW,225,7.0,7.0,84,0.00,,,0.00,TxWx,2013-08-14 14:56:00,
2013-08-14 09:57:00,85.0,79.0,29.95,South,180,5.0,5.0,84,0.00,,,0.00,TxWx,2013-08-14 14:57:00,
2013-08-14 10:00:00,85.0,79.0,29.95,South,180,7.0,8.0,83,0.00,,,0.00,TxWx,2013-08-14 15:00:00,
2013-08-14 10:01:00,85.0,79.0,29.95,SW,225,6.0,6.0,83,0.00,,,0.00,TxWx,2013-08-14 15:01:00,
2013-08-14 10:02:00,85.0,79.0,29.95,SW,225,4.0,5.0,83,0.00,,,0.00,TxWx,2013-08-14 15:02:00,
2013-08-14 10:03:00,85.0,79.0,29.95,SSW,202,3.0,3.0,83,0.00,,,0.00,TxWx,2013-08-14 15:03:00,
2013-08-14 10:04:00,85.0,79.0,29.95,South,180,5.0,5.0,83,0.00,,,0.00,TxWx,2013-08-14 15:04:00,
2013-08-14 10:06:00,85.0,79.0,29.95,SSE,157,4.0,4.0,82,0.00,,,0.00,TxWx,2013-08-14 15:06:00,
2013-08-14 10:08:00,86.0,80.0,29.95,SSW,202,10.0,10.0,82,0.00,,,0.00,TxWx,2013-08-14 15:08:00,
2013-08-14 10:10:00,86.0,79.0,29.95,SSW,202,8.0,8.0,81,0.00,,,0.00,TxWx,2013-08-14 15:10:00,
2013-08-14 10:13:00,86.0,78.0,29.95,SW,225,6.0,6.0,78,0.00,,,0.00,TxWx,2013-08-14 15:13:00,
2013-08-14 10:14:00,86.0,78.0,29.95,SW,225,8.0,8.0,78,0.00,,,0.00,TxWx,2013-08-14 15:14:00,
2013-08-14 10:15:00,86.0,78.0,29.95,SW,225,5.0,6.0,77,0.00,,,0.00,TxWx,2013-08-14 15:15:00,
2013-08-14 10:16:00,86.0,78.0,29.95,South,180,5.0,5.0,77,0.00,,,0.00,TxWx,2013-08-14 15:16:00,
2013-08-14 10:20:00,87.0,78.0,29.95,SSW,202,10.0,10.0,75,0.00,,,0.00,TxWx,2013-08-14 15:20:00,
2013-08-14 10:21:00,87.0,78.0,29.95,SW,225,8.0,9.0,75,0.00,,,0.00,TxWx,2013-08-14 15:21:00,
2013-08-14 10:22:00,87.0,78.0,29.95,WSW,247,6.0,6.0,75,0.00,,,0.00,TxWx,2013-08-14 15:22:00,
2013-08-14 10:23:00,87.0,78.0,29.95,South,180,4.0,4.0,76,0.00,,,0.00,TxWx,2013-08-14 15:23:00,
2013-08-14 10:25:00,87.0,78.0,29.95,SW,225,11.0,11.0,75,0.00,,,0.00,TxWx,2013-08-14 15:25:00,
2013-08-14 10:26:00,87.0,78.0,29.95,SW,225,5.0,5.0,76,0.00,,,0.00,TxWx,2013-08-14 15:26:00,
2013-08-14 10:27:00,87.0,78.0,29.95,SSW,202,8.0,9.0,76,0.00,,,0.00,TxWx,2013-08-14 15:27:00,
2013-08-14 10:29:00,87.0,78.0,29.95,WSW,247,8.0,9.0,75,0.00,,,0.00,TxWx,2013-08-14 15:29:00,
2013-08-14 10:30:00,87.0,78.0,29.95,WSW,247,8.0,8.0,75,0.00,,,0.00,TxWx,2013-08-14 15:30:00,
2013-08-14 10:32:00,87.0,78.0,29.95,SW,225,6.0,6.0,74,0.00,,,0.00,TxWx,2013-08-14 15:32:00,
2013-08-14 10:33:00,87.0,78.0,29.95,SW,225,6.0,6.0,74,0.00,,,0.00,TxWx,2013-08-14 15:33:00,
2013-08-14 10:36:00,87.0,77.0,29.95,SW,225,10.0,10.0,73,0.00,,,0.00,TxWx,2013-08-14 15:36:00,
2013-08-14 10:37:00,87.0,77.0,29.95,SW,225,6.0,7.0,73,0.00,,,0.00,TxWx,2013-08-14 15:37:00,
2013-08-14 10:38:00,87.0,77.0,29.95,WSW,247,10.0,10.0,73,0.00,,,0.00,TxWx,2013-08-14 15:38:00,
2013-08-14 10:40:00,87.0,77.0,29.95,SW,225,9.0,9.0,74,0.00,,,0.00,TxWx,2013-08-14 15:40:00,
2013-08-14 10:41:00,87.0,77.0,29.95,SW,225,6.0,6.0,73,0.00,,,0.00,TxWx,2013-08-14 15:41:00,
2013-08-14 10:42:00,87.0,77.0,29.95,SW,225,7.0,7.0,73,0.00,,,0.00,TxWx,2013-08-14 15:42:00,
2013-08-14 10:43:00,87.0,77.0,29.95,SSW,202,6.0,6.0,73,0.00,,,0.00,TxWx,2013-08-14 15:43:00,
2013-08-14 10:45:00,87.0,77.0,29.95,WSW,247,7.0,8.0,73,0.00,,,0.00,TxWx,2013-08-14 15:45:00,
2013-08-14 10:47:00,87.0,77.0,29.95,SSW,202,10.0,10.0,72,0.00,,,0.00,TxWx,2013-08-14 15:47:00,
2013-08-14 10:49:00,87.0,77.0,29.95,West,270,7.0,7.0,72,0.00,,,0.00,TxWx,2013-08-14 15:49:00,
2013-08-14 10:50:00,87.0,77.0,29.95,South,180,6.0,6.0,72,0.00,,,0.00,TxWx,2013-08-14 15:50:00,
2013-08-14 10:51:00,87.0,76.0,29.95,WSW,247,7.0,7.0,71,0.00,,,0.00,TxWx,2013-08-14 15:51:00,
2013-08-14 10:54:00,88.0,77.0,29.95,SW,225,7.0,8.0,71,0.00,,,0.00,TxWx,2013-08-14 15:54:00,
2013-08-14 10:55:00,88.0,77.0,29.95,West,270,6.0,6.0,71,0.00,,,0.00,TxWx,2013-08-14 15:55:00,
2013-08-14 10:57:00,88.0,77.0,29.95,SW,225,7.0,7.0,71,0.00,,,0.00,TxWx,2013-08-14 15:57:00,
2013-08-14 10:59:00,88.0,77.0,29.95,WSW,247,8.0,9.0,69,0.00,,,0.00,TxWx,2013-08-14 15:59:00,
2013-08-14 11:01:00,88.0,76.0,29.95,WSW,247,8.0,8.0,68,0.00,,,0.00,TxWx,2013-08-14 16:01:00,
2013-08-14 11:02:00,88.0,76.0,29.95,WSW,247,9.0,9.0,68,0.00,,,0.00,TxWx,2013-08-14 16:02:00,
2013-08-14 11:05:00,89.0,77.0,29.95,WSW,247,11.0,11.0,69,0.00,,,0.00,TxWx,2013-08-14 16:05:00,
2013-08-14 11:06:00,89.0,77.0,29.95,SSW,202,4.0,5.0,69,0.00,,,0.00,TxWx,2013-08-14 16:06:00,
2013-08-14 11:07:00,89.0,77.0,29.95,West,270,5.0,5.0,69,0.00,,,0.00,TxWx,2013-08-14 16:07:00,
2013-08-14 11:08:00,89.0,77.0,29.94,SSE,157,8.0,8.0,69,0.00,,,0.00,TxWx,2013-08-14 16:08:00,
2013-08-14 11:09:00,88.0,76.0,29.95,SSW,202,10.0,10.0,68,0.00,,,0.00,TxWx,2013-08-14 16:09:00,
2013-08-14 11:12:00,89.0,76.0,29.95,SSW,202,6.0,6.0,67,0.00,,,0.00,TxWx,2013-08-14 16:12:00,
2013-08-14 11:13:00,88.0,74.0,29.94,WSW,247,10.0,11.0,64,0.00,,,0.00,TxWx,2013-08-14 16:13:00,
2013-08-14 11:15:00,89.0,75.0,29.95,WSW,247,7.0,8.0,64,0.00,,,0.00,TxWx,2013-08-14 16:15:00,
2013-08-14 11:16:00,89.0,75.0,29.94,WSW,247,5.0,6.0,64,0.00,,,0.00,TxWx,2013-08-14 16:16:00,
2013-08-14 11:18:00,89.0,75.0,29.94,SW,225,8.0,9.0,64,0.00,,,0.00,TxWx,2013-08-14 16:18:00,
2013-08-14 11:19:00,89.0,75.0,29.94,SSW,202,8.0,10.0,64,0.00,,,0.00,TxWx,2013-08-14 16:19:00,
2013-08-14 11:21:00,89.0,75.0,29.94,SW,225,10.0,12.0,65,0.00,,,0.00,TxWx,2013-08-14 16:21:00,
2013-08-14 11:25:00,89.0,75.0,29.94,SW,225,8.0,9.0,64,0.00,,,0.00,TxWx,2013-08-14 16:25:00,
2013-08-14 11:26:00,89.0,75.0,29.94,SSW,202,5.0,6.0,64,0.00,,,0.00,TxWx,2013-08-14 16:26:00,
2013-08-14 11:27:00,89.0,75.0,29.94,SW,225,6.0,7.0,64,0.00,,,0.00,TxWx,2013-08-14 16:27:00,
2013-08-14 11:31:00,90.0,76.0,29.94,SW,225,8.0,8.0,64,0.00,,,0.00,TxWx,2013-08-14 16:31:00,
2013-08-14 11:32:00,90.0,76.0,29.94,SSW,202,10.0,10.0,64,0.00,,,0.00,TxWx,2013-08-14 16:32:00,
2013-08-14 11:33:00,90.0,76.0,29.94,SSW,202,10.0,10.0,64,0.00,,,0.00,TxWx,2013-08-14 16:33:00,
2013-08-14 11:36:00,90.0,76.0,29.94,SSW,202,12.0,13.0,63,0.00,,,0.00,TxWx,2013-08-14 16:36:00,
2013-08-14 11:37:00,90.0,76.0,29.94,SW,225,10.0,10.0,63,0.00,,,0.00,TxWx,2013-08-14 16:37:00,
2013-08-14 11:38:00,90.0,76.0,29.94,SW,225,8.0,8.0,63,0.00,,,0.00,TxWx,2013-08-14 16:38:00,
2013-08-14 11:39:00,90.0,76.0,29.93,SSE,157,3.0,3.0,64,0.00,,,0.00,TxWx,2013-08-14 16:39:00,
2013-08-14 11:43:00,90.0,76.0,29.93,WSW,247,6.0,6.0,63,0.00,,,0.00,TxWx,2013-08-14 16:43:00,
2013-08-14 11:44:00,91.0,77.0,29.93,SW,225,4.0,5.0,64,0.00,,,0.00,TxWx,2013-08-14 16:44:00,
2013-08-14 11:46:00,91.0,76.0,29.94,SW,225,6.0,8.0,62,0.00,,,0.00,TxWx,2013-08-14 16:46:00,
2013-08-14 11:48:00,91.0,76.0,29.93,WSW,247,3.0,4.0,62,0.00,,,0.00,TxWx,2013-08-14 16:48:00,
2013-08-14 11:50:00,92.0,76.0,29.93,WSW,247,9.0,10.0,61,0.00,,,0.00,TxWx,2013-08-14 16:50:00,
2013-08-14 11:51:00,92.0,76.0,29.93,WSW,247,8.0,8.0,61,0.00,,,0.00,TxWx,2013-08-14 16:51:00,
2013-08-14 11:53:00,91.0,75.0,29.94,SSW,202,11.0,11.0,61,0.00,,,0.00,TxWx,2013-08-14 16:53:00,
2013-08-14 11:56:00,91.0,76.0,29.93,SW,225,8.0,8.0,61,0.00,,,0.00,TxWx,2013-08-14 16:56:00,
2013-08-14 11:58:00,91.0,75.0,29.93,West,270,7.0,9.0,61,0.00,,,0.00,TxWx,2013-08-14 16:58:00,
2013-08-14 12:00:00,91.0,76.0,29.93,West,270,5.0,5.0,61,0.00,,,0.00,TxWx,2013-08-14 17:00:00,
2013-08-14 12:02:00,91.0,76.0,29.93,WSW,247,6.0,6.0,62,0.00,,,0.00,TxWx,2013-08-14 17:02:00,
2013-08-14 12:05:00,92.0,76.0,29.93,SW,225,7.0,8.0,61,0.00,,,0.00,TxWx,2013-08-14 17:05:00,
2013-08-14 12:06:00,92.0,76.0,29.93,SW,225,8.0,8.0,60,0.00,,,0.00,TxWx,2013-08-14 17:06:00,
2013-08-14 12:07:00,92.0,76.0,29.93,WSW,247,9.0,10.0,59,0.00,,,0.00,TxWx,2013-08-14 17:07:00,
2013-08-14 12:08:00,92.0,76.0,29.93,West,270,10.0,11.0,59,0.00,,,0.00,TxWx,2013-08-14 17:08:00,
2013-08-14 12:09:00,92.0,75.0,29.93,WSW,247,9.0,10.0,59,0.00,,,0.00,TxWx,2013-08-14 17:09:00,
2013-08-14 12:10:00,91.0,75.0,29.93,WSW,247,6.0,6.0,59,0.00,,,0.00,TxWx,2013-08-14 17:10:00,
2013-08-14 12:11:00,92.0,76.0,29.93,SW,225,4.0,5.0,60,0.00,,,0.00,TxWx,2013-08-14 17:11:00,
2013-08-14 12:12:00,92.0,76.0,29.93,SSW,202,6.0,7.0,60,0.00,,,0.00,TxWx,2013-08-14 17:12:00,
2013-08-14 12:14:00,92.0,75.0,29.93,WSW,247,5.0,5.0,59,0.00,,,0.00,TxWx,2013-08-14 17:14:00,
2013-08-14 12:16:00,92.0,75.0,29.93,West,270,6.0,6.0,57,0.00,,,0.00,TxWx,2013-08-14 17:16:00,
2013-08-14 12:18:00,92.0,75.0,29.93,South,180,8.0,9.0,58,0.00,,,0.00,TxWx,2013-08-14 17:18:00,
2013-08-14 12:20:00,92.0,75.0,29.93,SSE,157,5.0,6.0,58,0.00,,,0.00,TxWx,2013-08-14 17:20:00,
2013-08-14 12:21:00,93.0,76.0,29.93,SW,225,6.0,7.0,58,0.00,,,0.00,TxWx,2013-08-14 17:21:00,
2013-08-14 12:22:00,92.0,75.0,29.93,SW,225,9.0,9.0,57,0.00,,,0.00,TxWx,2013-08-14 17:22:00,
2013-08-14 12:26:00,93.0,75.0,29.93,WSW,247,4.0,5.0,57,0.00,,,0.00,TxWx,2013-08-14 17:26:00,
2013-08-14 12:27:00,93.0,76.0,29.93,SSW,202,3.0,3.0,58,0.00,,,0.00,TxWx,2013-08-14 17:27:00,
2013-08-14 12:29:00,92.0,73.0,29.93,SSE,157,8.0,8.0,55,0.00,,,0.00,TxWx,2013-08-14 17:29:00,
2013-08-14 12:30:00,92.0,73.0,29.93,East,90,6.0,6.0,55,0.00,,,0.00,TxWx,2013-08-14 17:30:00,
2013-08-14 12:31:00,92.0,74.0,29.93,SE,135,8.0,8.0,56,0.00,,,0.00,TxWx,2013-08-14 17:31:00,
2013-08-14 12:32:00,93.0,75.0,29.93,East,90,3.0,3.0,56,0.00,,,0.00,TxWx,2013-08-14 17:32:00,
2013-08-14 12:33:00,93.0,75.0,29.93,SSE,157,6.0,6.0,56,0.00,,,0.00,TxWx,2013-08-14 17:33:00,
2013-08-14 12:34:00,93.0,75.0,29.93,WSW,247,5.0,5.0,56,0.00,,,0.00,TxWx,2013-08-14 17:34:00,
2013-08-14 12:35:00,93.0,75.0,29.93,SSE,157,9.0,10.0,56,0.00,,,0.00,TxWx,2013-08-14 17:35:00,
2013-08-14 12:38:00,93.0,74.0,29.93,SW,225,6.0,6.0,54,0.00,,,0.00,TxWx,2013-08-14 17:38:00,
2013-08-14 12:39:00,93.0,74.0,29.92,West,270,5.0,6.0,54,0.00,,,0.00,TxWx,2013-08-14 17:39:00,
2013-08-14 12:40:00,94.0,75.0,29.92,WNW,292,4.0,4.0,55,0.00,,,0.00,TxWx,2013-08-14 17:40:00,
2013-08-14 12:41:00,94.0,75.0,29.92,ESE,112,3.0,3.0,55,0.00,,,0.00,TxWx,2013-08-14 17:41:00,
2013-08-14 12:45:00,94.0,74.0,29.92,ENE,67,3.0,3.0,54,0.00,,,0.00,TxWx,2013-08-14 17:45:00,
2013-08-14 12:46:00,94.0,74.0,29.92,WSW,247,2.0,2.0,54,0.00,,,0.00,TxWx,2013-08-14 17:46:00,
2013-08-14 12:47:00,94.0,74.0,29.92,SSW,202,6.0,6.0,53,0.00,,,0.00,TxWx,2013-08-14 17:47:00,
2013-08-14 12:51:00,94.0,74.0,29.92,WNW,292,6.0,6.0,52,0.00,,,0.00,TxWx,2013-08-14 17:51:00,
2013-08-14 12:52:00,95.0,75.0,29.92,SSW,202,4.0,4.0,53,0.00,,,0.00,TxWx,2013-08-14 17:52:00,
2013-08-14 12:53:00,94.0,73.0,29.92,SW,225,4.0,4.0,51,0.00,,,0.00,TxWx,2013-08-14 17:53:00,
2013-08-14 12:57:00,94.0,75.0,29.92,ENE,67,3.0,3.0,55,0.00,,,0.00,TxWx,2013-08-14 17:57:00,
2013-08-14 12:58:00,95.0,76.0,29.92,WSW,247,3.0,3.0,55,0.00,,,0.00,TxWx,2013-08-14 17:58:00,
2013-08-14 12:59:00,95.0,76.0,29.92,NW,315,2.0,3.0,55,0.00,,,0.00,TxWx,2013-08-14 17:59:00,
2013-08-14 13:01:00,94.0,75.0,29.92,South,180,8.0,8.0,55,0.00,,,0.00,TxWx,2013-08-14 18:01:00,
2013-08-14 13:04:00,94.0,76.0,29.92,SE,135,5.0,6.0,57,0.00,,,0.00,TxWx,2013-08-14 18:04:00,
2013-08-14 13:05:00,94.0,76.0,29.92,WSW,247,1.0,2.0,57,0.00,,,0.00,TxWx,2013-08-14 18:05:00,
2013-08-14 13:09:00,94.0,76.0,29.92,WSW,247,5.0,9.0,56,0.00,,,0.00,TxWx,2013-08-14 18:09:00,
2013-08-14 13:10:00,94.0,76.0,29.92,SW,225,9.0,10.0,56,0.00,,,0.00,TxWx,2013-08-14 18:10:00,
2013-08-14 13:13:00,94.0,76.0,29.92,South,180,13.0,14.0,57,0.00,,,0.00,TxWx,2013-08-14 18:13:00,
2013-08-14 13:15:00,93.0,76.0,29.92,SSE,157,8.0,9.0,58,0.00,,,0.00,TxWx,2013-08-14 18:15:00,
2013-08-14 13:16:00,93.0,76.0,29.92,SSW,202,6.0,7.0,59,0.00,,,0.00,TxWx,2013-08-14 18:16:00,
2013-08-14 13:17:00,93.0,77.0,29.92,SE,135,10.0,10.0,60,0.00,,,0.00,TxWx,2013-08-14 18:17:00,
2013-08-14 13:19:00,93.0,77.0,29.92,SSE,157,11.0,13.0,60,0.00,,,0.00,TxWx,2013-08-14 18:19:00,
2013-08-14 13:20:00,93.0,78.0,29.91,ESE,112,9.0,9.0,62,0.00,,,0.00,TxWx,2013-08-14 18:20:00,
2013-08-14 13:24:00,94.0,78.0,29.92,SE,135,11.0,11.0,60,0.00,,,0.00,TxWx,2013-08-14 18:24:00,
2013-08-14 13:25:00,93.0,77.0,29.92,SE,135,6.0,6.0,61,0.00,,,0.00,TxWx,2013-08-14 18:25:00,
2013-08-14 13:27:00,93.0,77.0,29.91,South,180,10.0,12.0,60,0.00,,,0.00,TxWx,2013-08-14 18:27:00,
2013-08-14 13:28:00,94.0,78.0,29.91,SSW,202,9.0,10.0,60,0.00,,,0.00,TxWx,2013-08-14 18:28:00,
2013-08-14 13:29:00,93.0,77.0,29.91,SSW,202,8.0,10.0,60,0.00,,,0.00,TxWx,2013-08-14 18:29:00,
2013-08-14 13:32:00,93.0,77.0,29.91,SSE,157,7.0,7.0,60,0.00,,,0.00,TxWx,2013-08-14 18:32:00,
2013-08-14 13:34:00,93.0,76.0,29.91,SE,135,6.0,6.0,59,0.00,,,0.00,TxWx,2013-08-14 18:34:00,
2013-08-14 13:35:00,93.0,77.0,29.91,South,180,7.0,8.0,60,0.00,,,0.00,TxWx,2013-08-14 18:35:00,
2013-08-14 13:37:00,94.0,78.0,29.91,SSW,202,6.0,6.0,61,0.00,,,0.00,TxWx,2013-08-14 18:37:00,
2013-08-14 13:38:00,94.0,78.0,29.91,SSE,157,7.0,7.0,61,0.00,,,0.00,TxWx,2013-08-14 18:38:00,
2013-08-14 13:40:00,93.0,77.0,29.91,SE,135,11.0,11.0,61,0.00,,,0.00,TxWx,2013-08-14 18:40:00,
2013-08-14 13:43:00,93.0,78.0,29.91,SSE,157,11.0,11.0,62,0.00,,,0.00,TxWx,2013-08-14 18:43:00,
2013-08-14 13:44:00,93.0,78.0,29.91,SE,135,9.0,9.0,63,0.00,,,0.00,TxWx,2013-08-14 18:44:00,
2013-08-14 13:45:00,93.0,79.0,29.91,NE,45,8.0,8.0,64,0.00,,,0.00,TxWx,2013-08-14 18:45:00,
2013-08-14 13:47:00,92.0,78.0,29.91,SE,135,14.0,14.0,63,0.00,,,0.00,TxWx,2013-08-14 18:47:00,
2013-08-14 13:48:00,92.0,78.0,29.91,East,90,6.0,6.0,65,0.00,,,0.00,TxWx,2013-08-14 18:48:00,
2013-08-14 13:49:00,93.0,79.0,29.91,SE,135,10.0,10.0,65,0.00,,,0.00,TxWx,2013-08-14 18:49:00,
2013-08-14 13:51:00,92.0,78.0,29.90,SE,135,13.0,16.0,64,0.00,,,0.00,TxWx,2013-08-14 18:51:00,
2013-08-14 13:52:00,92.0,78.0,29.91,SSE,157,14.0,14.0,65,0.00,,,0.00,TxWx,2013-08-14 18:52:00,
2013-08-14 13:54:00,93.0,79.0,29.90,SSE,157,5.0,7.0,65,0.00,,,0.00,TxWx,2013-08-14 18:54:00,
2013-08-14 13:55:00,93.0,79.0,29.91,SSE,157,5.0,6.0,65,0.00,,,0.00,TxWx,2013-08-14 18:55:00,
2013-08-14 13:57:00,92.0,78.0,29.90,SSE,157,10.0,10.0,64,0.00,,,0.00,TxWx,2013-08-14 18:57:00,
2013-08-14 13:58:00,92.0,78.0,29.91,SE,135,13.0,13.0,64,0.00,,,0.00,TxWx,2013-08-14 18:58:00,
2013-08-14 14:00:00,92.0,78.0,29.90,ESE,112,13.0,13.0,65,0.00,,,0.00,TxWx,2013-08-14 19:00:00,
2013-08-14 14:03:00,92.0,79.0,29.90,SE,135,11.0,11.0,66,0.00,,,0.00,TxWx,2013-08-14 19:03:00,
2013-08-14 14:04:00,92.0,78.0,29.90,ESE,112,12.0,12.0,65,0.00,,,0.00,TxWx,2013-08-14 19:04:00,
2013-08-14 14:05:00,92.0,79.0,29.90,SE,135,11.0,11.0,66,0.00,,,0.00,TxWx,2013-08-14 19:05:00,
2013-08-14 14:06:00,92.0,78.0,29.90,SE,135,14.0,14.0,65,0.00,,,0.00,TxWx,2013-08-14 19:06:00,
2013-08-14 14:08:00,92.0,79.0,29.90,SE,135,8.0,9.0,66,0.00,,,0.00,TxWx,2013-08-14 19:08:00,
2013-08-14 14:12:00,92.0,79.0,29.90,SE,135,10.0,10.0,66,0.00,,,0.00,TxWx,2013-08-14 19:12:00,
2013-08-14 14:13:00,92.0,79.0,29.90,SE,135,12.0,12.0,66,0.00,,,0.00,TxWx,2013-08-14 19:13:00,
2013-08-14 14:15:00,92.0,78.0,29.90,ESE,112,10.0,11.0,65,0.00,,,0.00,TxWx,2013-08-14 19:15:00,
2013-08-14 14:17:00,91.0,77.0,29.90,SE,135,9.0,9.0,65,0.00,,,0.00,TxWx,2013-08-14 19:17:00,
2013-08-14 14:18:00,91.0,78.0,29.90,SE,135,11.0,11.0,65,0.00,,,0.00,TxWx,2013-08-14 19:18:00,
2013-08-14 14:20:00,91.0,78.0,29.90,SE,135,12.0,13.0,66,0.00,,,0.00,TxWx,2013-08-14 19:20:00,
2013-08-14 14:25:00,91.0,77.0,29.90,SE,135,10.0,11.0,65,0.00,,,0.00,TxWx,2013-08-14 19:25:00,
2013-08-14 14:26:00,92.0,78.0,29.89,SE,135,7.0,8.0,65,0.00,,,0.00,TxWx,2013-08-14 19:26:00,
2013-08-14 14:31:00,91.0,78.0,29.89,SE,135,9.0,10.0,65,0.00,,,0.00,TxWx,2013-08-14 19:31:00,
2013-08-14 14:32:00,91.0,77.0,29.89,East,90,8.0,8.0,65,0.00,,,0.00,TxWx,2013-08-14 19:32:00,
2013-08-14 14:34:00,91.0,78.0,29.89,SSE,157,8.0,9.0,65,0.00,,,0.00,TxWx,2013-08-14 19:34:00,
2013-08-14 14:36:00,91.0,77.0,29.89,SE,135,16.0,16.0,65,0.00,,,0.00,TxWx,2013-08-14 19:36:00,
2013-08-14 14:37:00,91.0,77.0,29.89,ESE,112,10.0,13.0,65,0.00,,,0.00,TxWx,2013-08-14 19:37:00,
2013-08-14 14:39:00,91.0,78.0,29.89,SE,135,13.0,15.0,65,0.00,,,0.00,TxWx,2013-08-14 19:39:00,
2013-08-14 14:40:00,91.0,78.0,29.89,SE,135,14.0,14.0,65,0.00,,,0.00,TxWx,2013-08-14 19:40:00,
2013-08-14 14:42:00,91.0,78.0,29.89,East,90,6.0,6.0,65,0.00,,,0.00,TxWx,2013-08-14 19:42:00,
2013-08-14 14:45:00,92.0,79.0,29.89,SE,135,5.0,6.0,66,0.00,,,0.00,TxWx,2013-08-14 19:45:00,
2013-08-14 14:46:00,91.0,77.0,29.89,SE,135,10.0,10.0,64,0.00,,,0.00,TxWx,2013-08-14 19:46:00,
2013-08-14 14:47:00,91.0,77.0,29.89,ESE,112,8.0,8.0,65,0.00,,,0.00,TxWx,2013-08-14 19:47:00,
2013-08-14 14:48:00,92.0,78.0,29.89,SE,135,11.0,11.0,65,0.00,,,0.00,TxWx,2013-08-14 19:48:00,
2013-08-14 14:52:00,92.0,78.0,29.89,SSE,157,10.0,10.0,63,0.00,,,0.00,TxWx,2013-08-14 19:52:00,
2013-08-14 14:53:00,91.0,77.0,29.89,SSE,157,8.0,10.0,63,0.00,,,0.00,TxWx,2013-08-14 19:53:00,
2013-08-14 14:54:00,92.0,78.0,29.89,SE,135,12.0,17.0,64,0.00,,,0.00,TxWx,2013-08-14 19:54:00,
2013-08-14 14:55:00,92.0,78.0,29.89,ESE,112,8.0,8.0,63,0.00,,,0.00,TxWx,2013-08-14 19:55:00,
2013-08-14 14:59:00,92.0,77.0,29.89,SE,135,8.0,8.0,62,0.00,,,0.00,TxWx,2013-08-14 19:59:00,
2013-08-14 15:00:00,91.0,76.0,29.89,SE,135,10.0,15.0,62,0.00,,,0.00,TxWx,2013-08-14 20:00:00,
2013-08-14 15:01:00,91.0,76.0,29.89,East,90,10.0,14.0,62,0.00,,,0.00,TxWx,2013-08-14 20:01:00,
2013-08-14 15:02:00,92.0,77.0,29.89,SE,135,8.0,14.0,62,0.00,,,0.00,TxWx,2013-08-14 20:02:00,
2013-08-14 15:04:00,92.0,76.0,29.89,SSE,157,10.0,14.0,61,0.00,,,0.00,TxWx,2013-08-14 20:04:00,
2013-08-14 15:06:00,92.0,76.0,29.89,SSE,157,9.0,10.0,61,0.00,,,0.00,TxWx,2013-08-14 20:06:00,
2013-08-14 15:07:00,93.0,77.0,29.89,SE,135,4.0,5.0,61,0.00,,,0.00,TxWx,2013-08-14 20:07:00,
2013-08-14 15:08:00,93.0,77.0,29.89,SE,135,9.0,9.0,60,0.00,,,0.00,TxWx,2013-08-14 20:08:00,
2013-08-14 15:12:00,93.0,76.0,29.88,SE,135,8.0,9.0,59,0.00,,,0.00,TxWx,2013-08-14 20:12:00,
2013-08-14 15:13:00,93.0,76.0,29.88,SSE,157,11.0,11.0,58,0.00,,,0.00,TxWx,2013-08-14 20:13:00,
2013-08-14 15:15:00,93.0,76.0,29.88,SE,135,7.0,7.0,58,0.00,,,0.00,TxWx,2013-08-14 20:15:00,
2013-08-14 15:17:00,92.0,75.0,29.88,South,180,11.0,11.0,57,0.00,,,0.00,TxWx,2013-08-14 20:17:00,
2013-08-14 15:18:00,93.0,76.0,29.88,East,90,16.0,16.0,58,0.00,,,0.00,TxWx,2013-08-14 20:18:00,
2013-08-14 15:22:00,93.0,76.0,29.88,SE,135,13.0,13.0,58,0.00,,,0.00,TxWx,2013-08-14 20:22:00,
2013-08-14 15:23:00,92.0,74.0,29.88,ESE,112,16.0,16.0,56,0.00,,,0.00,TxWx,2013-08-14 20:23:00,
2013-08-14 15:25:00,92.0,74.0,29.88,South,180,11.0,11.0,57,0.00,,,0.00,TxWx,2013-08-14 20:25:00,
2013-08-14 15:26:00,92.0,75.0,29.88,ESE,112,7.0,8.0,57,0.00,,,0.00,TxWx,2013-08-14 20:26:00,
2013-08-14 15:28:00,92.0,74.0,29.88,ESE,112,11.0,11.0,56,0.00,,,0.00,TxWx,2013-08-14 20:28:00,
2013-08-14 15:31:00,92.0,75.0,29.88,SSE,157,10.0,10.0,57,0.00,,,0.00,TxWx,2013-08-14 20:31:00,
2013-08-14 15:32:00,92.0,75.0,29.88,ESE,112,11.0,11.0,59,0.00,,,0.00,TxWx,2013-08-14 20:32:00,
2013-08-14 15:34:00,92.0,76.0,29.88,SE,135,12.0,13.0,60,0.00,,,0.00,TxWx,2013-08-14 20:34:00,
2013-08-14 15:37:00,92.0,76.0,29.87,South,180,9.0,9.0,60,0.00,,,0.00,TxWx,2013-08-14 20:37:00,
2013-08-14 15:39:00,92.0,75.0,29.88,SE,135,7.0,9.0,59,0.00,,,0.00,TxWx,2013-08-14 20:39:00,
2013-08-14 15:41:00,92.0,76.0,29.87,SE,135,8.0,11.0,60,0.00,,,0.00,TxWx,2013-08-14 20:41:00,
2013-08-14 15:42:00,92.0,75.0,29.87,SSE,157,10.0,11.0,58,0.00,,,0.00,TxWx,2013-08-14 20:42:00,
2013-08-14 15:45:00,92.0,76.0,29.87,ESE,112,6.0,8.0,61,0.00,,,0.00,TxWx,2013-08-14 20:45:00,
2013-08-14 15:46:00,92.0,76.0,29.87,SE,135,13.0,14.0,60,0.00,,,0.00,TxWx,2013-08-14 20:46:00,
2013-08-14 15:49:00,92.0,76.0,29.87,SE,135,12.0,12.0,60,0.00,,,0.00,TxWx,2013-08-14 20:49:00,
2013-08-14 15:50:00,91.0,75.0,29.87,SE,135,16.0,16.0,60,0.00,,,0.00,TxWx,2013-08-14 20:50:00,
2013-08-14 15:51:00,91.0,75.0,29.87,SE,135,12.0,14.0,60,0.00,,,0.00,TxWx,2013-08-14 20:51:00,
2013-08-14 15:55:00,92.0,76.0,29.87,SE,135,8.0,8.0,60,0.00,,,0.00,TxWx,2013-08-14 20:55:00,
2013-08-14 15:56:00,91.0,75.0,29.87,SE,135,11.0,12.0,60,0.00,,,0.00,TxWx,2013-08-14 20:56:00,
2013-08-14 15:57:00,92.0,76.0,29.87,SE,135,6.0,7.0,61,0.00,,,0.00,TxWx,2013-08-14 20:57:00,
2013-08-14 16:00:00,92.0,75.0,29.87,SSE,157,10.0,14.0,59,0.00,,,0.00,TxWx,2013-08-14 21:00:00,
2013-08-14 16:01:00,92.0,75.0,29.87,East,90,8.0,12.0,58,0.00,,,0.00,TxWx,2013-08-14 21:01:00,
2013-08-14 16:03:00,92.0,76.0,29.87,SSE,157,10.0,10.0,59,0.00,,,0.00,TxWx,2013-08-14 21:03:00,
2013-08-14 16:05:00,92.0,75.0,29.87,SSE,157,12.0,13.0,59,0.00,,,0.00,TxWx,2013-08-14 21:05:00,
2013-08-14 16:07:00,92.0,76.0,29.87,SSE,157,8.0,8.0,59,0.00,,,0.00,TxWx,2013-08-14 21:07:00,
2013-08-14 16:08:00,92.0,75.0,29.87,ESE,112,7.0,10.0,57,0.00,,,0.00,TxWx,2013-08-14 21:08:00,
2013-08-14 16:09:00,92.0,75.0,29.87,SSE,157,11.0,11.0,57,0.00,,,0.00,TxWx,2013-08-14 21:09:00,
2013-08-14 16:10:00,92.0,75.0,29.87,SE,135,11.0,11.0,58,0.00,,,0.00,TxWx,2013-08-14 21:10:00,
2013-08-14 16:12:00,91.0,74.0,29.87,SE,135,14.0,14.0,58,0.00,,,0.00,TxWx,2013-08-14 21:12:00,
2013-08-14 16:14:00,92.0,75.0,29.87,SE,135,6.0,8.0,58,0.00,,,0.00,TxWx,2013-08-14 21:14:00,
2013-08-14 16:15:00,91.0,73.0,29.87,SE,135,9.0,9.0,57,0.00,,,0.00,TxWx,2013-08-14 21:15:00,
2013-08-14 16:17:00,91.0,74.0,29.87,SE,135,10.0,10.0,58,0.00,,,0.00,TxWx,2013-08-14 21:17:00,
2013-08-14 16:18:00,91.0,74.0,29.87,SE,135,13.0,14.0,58,0.00,,,0.00,TxWx,2013-08-14 21:18:00,
2013-08-14 16:19:00,91.0,73.0,29.87,SE,135,13.0,13.0,57,0.00,,,0.00,TxWx,2013-08-14 21:19:00,
2013-08-14 16:20:00,91.0,74.0,29.87,SE,135,14.0,16.0,58,0.00,,,0.00,TxWx,2013-08-14 21:20:00,
2013-08-14 16:22:00,91.0,73.0,29.87,SE,135,10.0,13.0,56,0.00,,,0.00,TxWx,2013-08-14 21:22:00,
2013-08-14 16:24:00,91.0,73.0,29.87,SE,135,10.0,10.0,56,0.00,,,0.00,TxWx,2013-08-14 21:24:00,
2013-08-14 16:25:00,91.0,73.0,29.87,SE,135,11.0,11.0,57,0.00,,,0.00,TxWx,2013-08-14 21:25:00,
2013-08-14 16:26:00,91.0,73.0,29.87,ESE,112,8.0,8.0,56,0.00,,,0.00,TxWx,2013-08-14 21:26:00,
2013-08-14 16:27:00,92.0,74.0,29.86,SE,135,15.0,15.0,56,0.00,,,0.00,TxWx,2013-08-14 21:27:00,
2013-08-14 16:28:00,91.0,73.0,29.86,SE,135,10.0,11.0,57,0.00,,,0.00,TxWx,2013-08-14 21:28:00,
2013-08-14 16:30:00,91.0,72.0,29.86,SSE,157,14.0,16.0,55,0.00,,,0.00,TxWx,2013-08-14 21:30:00,
2013-08-14 16:32:00,91.0,72.0,29.86,South,180,8.0,9.0,54,0.00,,,0.00,TxWx,2013-08-14 21:32:00,
2013-08-14 16:34:00,91.0,72.0,29.86,SSE,157,18.0,18.0,54,0.00,,,0.00,TxWx,2013-08-14 21:34:00,
2013-08-14 16:36:00,91.0,72.0,29.86,South,180,8.0,8.0,54,0.00,,,0.00,TxWx,2013-08-14 21:36:00,
2013-08-14 16:38:00,92.0,73.0,29.86,ESE,112,14.0,14.0,55,0.00,,,0.00,TxWx,2013-08-14 21:38:00,
2013-08-14 16:39:00,91.0,73.0,29.86,SSE,157,10.0,11.0,55,0.00,,,0.00,TxWx,2013-08-14 21:39:00,
2013-08-14 16:41:00,91.0,73.0,29.86,SE,135,11.0,11.0,56,0.00,,,0.00,TxWx,2013-08-14 21:41:00,
2013-08-14 16:43:00,91.0,73.0,29.86,SE,135,11.0,11.0,56,0.00,,,0.00,TxWx,2013-08-14 21:43:00,
2013-08-14 16:45:00,91.0,73.0,29.86,SE,135,16.0,16.0,56,0.00,,,0.00,TxWx,2013-08-14 21:45:00,
2013-08-14 16:48:00,91.0,74.0,29.86,SE,135,10.0,10.0,58,0.00,,,0.00,TxWx,2013-08-14 21:48:00,
2013-08-14 16:49:00,91.0,73.0,29.86,SE,135,12.0,13.0,57,0.00,,,0.00,TxWx,2013-08-14 21:49:00,
2013-08-14 16:51:00,91.0,73.0,29.86,ESE,112,10.0,11.0,56,0.00,,,0.00,TxWx,2013-08-14 21:51:00,
2013-08-14 16:52:00,91.0,73.0,29.86,SE,135,14.0,15.0,57,0.00,,,0.00,TxWx,2013-08-14 21:52:00,
2013-08-14 16:56:00,91.0,74.0,29.86,SE,135,9.0,13.0,57,0.00,,,0.00,TxWx,2013-08-14 21:56:00,
2013-08-14 16:57:00,91.0,73.0,29.86,SE,135,11.0,12.0,57,0.00,,,0.00,TxWx,2013-08-14 21:57:00,
2013-08-14 17:01:00,91.0,74.0,29.86,SE,135,11.0,12.0,57,0.00,,,0.00,TxWx,2013-08-14 22:01:00,
2013-08-14 17:02:00,91.0,74.0,29.86,SE,135,15.0,15.0,57,0.00,,,0.00,TxWx,2013-08-14 22:02:00,
2013-08-14 17:03:00,91.0,74.0,29.86,SE,135,10.0,11.0,58,0.00,,,0.00,TxWx,2013-08-14 22:03:00,
2013-08-14 17:04:00,90.0,73.0,29.86,SE,135,11.0,12.0,58,0.00,,,0.00,TxWx,2013-08-14 22:04:00,
2013-08-14 17:07:00,91.0,73.0,29.86,ESE,112,8.0,8.0,56,0.00,,,0.00,TxWx,2013-08-14 22:07:00,
2013-08-14 17:08:00,91.0,73.0,29.86,SSE,157,8.0,8.0,56,0.00,,,0.00,TxWx,2013-08-14 22:08:00,
2013-08-14 17:10:00,91.0,73.0,29.86,SE,135,8.0,10.0,57,0.00,,,0.00,TxWx,2013-08-14 22:10:00,
2013-08-14 17:13:00,91.0,73.0,29.86,South,180,11.0,11.0,57,0.00,,,0.00,TxWx,2013-08-14 22:13:00,
2013-08-14 17:14:00,91.0,73.0,29.86,SE,135,8.0,8.0,57,0.00,,,0.00,TxWx,2013-08-14 22:14:00,
2013-08-14 17:16:00,91.0,73.0,29.86,SSE,157,13.0,14.0,57,0.00,,,0.00,TxWx,2013-08-14 22:16:00,
2013-08-14 17:18:00,91.0,72.0,29.86,SSE,157,17.0,17.0,55,0.00,,,0.00,TxWx,2013-08-14 22:18:00,
2013-08-14 17:19:00,91.0,73.0,29.86,SSE,157,8.0,11.0,55,0.00,,,0.00,TxWx,2013-08-14 22:19:00,
2013-08-14 17:20:00,91.0,73.0,29.86,SSE,157,11.0,11.0,56,0.00,,,0.00,TxWx,2013-08-14 22:20:00,
2013-08-14 17:23:00,90.0,72.0,29.86,SE,135,18.0,18.0,56,0.00,,,0.00,TxWx,2013-08-14 22:23:00,
2013-08-14 17:24:00,90.0,72.0,29.85,SSW,202,14.0,14.0,56,0.00,,,0.00,TxWx,2013-08-14 22:24:00,
2013-08-14 17:25:00,91.0,73.0,29.86,SSE,157,8.0,10.0,56,0.00,,,0.00,TxWx,2013-08-14 22:25:00,
2013-08-14 17:27:00,91.0,73.0,29.86,SSE,157,10.0,12.0,56,0.00,,,0.00,TxWx,2013-08-14 22:27:00,
2013-08-14 17:29:00,91.0,73.0,29.86,SE,135,8.0,8.0,57,0.00,,,0.00,TxWx,2013-08-14 22:29:00,
2013-08-14 17:31:00,91.0,74.0,29.86,SSE,157,8.0,8.0,58,0.00,,,0.00,TxWx,2013-08-14 22:31:00,
2013-08-14 17:32:00,91.0,74.0,29.86,SE,135,11.0,11.0,58,0.00,,,0.00,TxWx,2013-08-14 22:32:00,
2013-08-14 17:35:00,91.0,74.0,29.85,SE,135,8.0,9.0,59,0.00,,,0.00,TxWx,2013-08-14 22:35:00,
2013-08-14 17:38:00,91.0,75.0,29.85,ESE,112,8.0,8.0,60,0.00,,,0.00,TxWx,2013-08-14 22:38:00,
2013-08-14 17:40:00,91.0,75.0,29.86,South,180,4.0,4.0,60,0.00,,,0.00,TxWx,2013-08-14 22:40:00,
2013-08-14 17:41:00,90.0,74.0,29.85,SE,135,10.0,11.0,59,0.00,,,0.00,TxWx,2013-08-14 22:41:00,
2013-08-14 17:43:00,90.0,74.0,29.85,SE,135,12.0,12.0,60,0.00,,,0.00,TxWx,2013-08-14 22:43:00,
2013-08-14 17:44:00,90.0,74.0,29.85,SE,135,9.0,11.0,61,0.00,,,0.00,TxWx,2013-08-14 22:44:00,
2013-08-14 17:46:00,90.0,74.0,29.85,SE,135,7.0,9.0,60,0.00,,,0.00,TxWx,2013-08-14 22:46:00,
2013-08-14 17:47:00,90.0,74.0,29.85,SSE,157,11.0,11.0,60,0.00,,,0.00,TxWx,2013-08-14 22:47:00,
2013-08-14 17:49:00,91.0,76.0,29.85,SSE,157,6.0,7.0,61,0.00,,,0.00,TxWx,2013-08-14 22:49:00,
2013-08-14 17:50:00,91.0,75.0,29.85,SE,135,7.0,7.0,61,0.00,,,0.00,TxWx,2013-08-14 22:50:00,
2013-08-14 17:51:00,90.0,74.0,29.85,SSE,157,11.0,11.0,61,0.00,,,0.00,TxWx,2013-08-14 22:51:00,
2013-08-14 17:52:00,90.0,75.0,29.85,South,180,6.0,6.0,61,0.00,,,0.00,TxWx,2013-08-14 22:52:00,
2013-08-14 17:56:00,90.0,74.0,29.86,SSE,157,13.0,13.0,59,0.00,,,0.00,TxWx,2013-08-14 22:56:00,
2013-08-14 17:57:00,90.0,74.0,29.86,SE,135,15.0,17.0,59,0.00,,,0.00,TxWx,2013-08-14 22:57:00,
2013-08-14 17:58:00,90.0,74.0,29.86,SE,135,6.0,7.0,60,0.00,,,0.00,TxWx,2013-08-14 22:58:00,
2013-08-14 18:01:00,90.0,75.0,29.85,SE,135,5.0,5.0,62,0.00,,,0.00,TxWx,2013-08-14 23:01:00,
2013-08-14 18:03:00,90.0,75.0,29.86,ESE,112,10.0,10.0,63,0.00,,,0.00,TxWx,2013-08-14 23:03:00,
2013-08-14 18:06:00,89.0,75.0,29.86,SSE,157,10.0,10.0,64,0.00,,,0.00,TxWx,2013-08-14 23:06:00,
2013-08-14 18:08:00,90.0,75.0,29.86,South,180,10.0,13.0,63,0.00,,,0.00,TxWx,2013-08-14 23:08:00,
2013-08-14 18:09:00,90.0,75.0,29.86,SSE,157,14.0,15.0,62,0.00,,,0.00,TxWx,2013-08-14 23:09:00,
2013-08-14 18:10:00,90.0,75.0,29.86,SE,135,5.0,7.0,63,0.00,,,0.00,TxWx,2013-08-14 23:10:00,
2013-08-14 18:11:00,90.0,75.0,29.86,ESE,112,8.0,8.0,63,0.00,,,0.00,TxWx,2013-08-14 23:11:00,
2013-08-14 18:15:00,89.0,75.0,29.86,SE,135,8.0,8.0,63,0.00,,,0.00,TxWx,2013-08-14 23:15:00,
2013-08-14 18:16:00,89.0,75.0,29.86,SE,135,12.0,14.0,64,0.00,,,0.00,TxWx,2013-08-14 23:16:00,
2013-08-14 18:17:00,89.0,75.0,29.86,SE,135,5.0,6.0,64,0.00,,,0.00,TxWx,2013-08-14 23:17:00,
2013-08-14 18:22:00,89.0,75.0,29.86,South,180,8.0,8.0,64,0.00,,,0.00,TxWx,2013-08-14 23:22:00,
2013-08-14 18:23:00,89.0,75.0,29.86,SSE,157,7.0,7.0,64,0.00,,,0.00,TxWx,2013-08-14 23:23:00,
2013-08-14 18:24:00,89.0,75.0,29.86,SSE,157,7.0,7.0,65,0.00,,,0.00,TxWx,2013-08-14 23:24:00,
2013-08-14 18:28:00,89.0,74.0,29.86,South,180,14.0,14.0,61,0.00,,,0.00,TxWx,2013-08-14 23:28:00,
2013-08-14 18:29:00,89.0,73.0,29.86,SE,135,10.0,11.0,60,0.00,,,0.00,TxWx,2013-08-14 23:29:00,
2013-08-14 18:30:00,89.0,73.0,29.86,ESE,112,16.0,16.0,61,0.00,,,0.00,TxWx,2013-08-14 23:30:00,
2013-08-14 18:31:00,89.0,74.0,29.86,South,180,7.0,10.0,62,0.00,,,0.00,TxWx,2013-08-14 23:31:00,
2013-08-14 18:34:00,89.0,75.0,29.86,SSE,157,9.0,9.0,63,0.00,,,0.00,TxWx,2013-08-14 23:34:00,
2013-08-14 18:35:00,89.0,75.0,29.86,SSW,202,10.0,10.0,64,0.00,,,0.00,TxWx,2013-08-14 23:35:00,
2013-08-14 18:36:00,89.0,75.0,29.86,SSE,157,13.0,13.0,64,0.00,,,0.00,TxWx,2013-08-14 23:36:00,
2013-08-14 18:38:00,89.0,75.0,29.86,SSE,157,11.0,12.0,64,0.00,,,0.00,TxWx,2013-08-14 23:38:00,
2013-08-14 18:39:00,89.0,75.0,29.86,SSE,157,10.0,10.0,65,0.00,,,0.00,TxWx,2013-08-14 23:39:00,
2013-08-14 18:42:00,89.0,75.0,29.85,SE,135,8.0,8.0,65,0.00,,,0.00,TxWx,2013-08-14 23:42:00,
2013-08-14 18:43:00,89.0,76.0,29.86,South,180,7.0,9.0,65,0.00,,,0.00,TxWx,2013-08-14 23:43:00,
2013-08-14 18:44:00,89.0,76.0,29.86,SSE,157,11.0,11.0,65,0.00,,,0.00,TxWx,2013-08-14 23:44:00,
2013-08-14 18:45:00,89.0,76.0,29.86,SE,135,8.0,8.0,65,0.00,,,0.00,TxWx,2013-08-14 23:45:00,
2013-08-14 18:47:00,88.0,75.0,29.86,ESE,112,7.0,8.0,66,0.00,,,0.00,TxWx,2013-08-14 23:47:00,
2013-08-14 18:48:00,88.0,76.0,29.86,SSE,157,7.0,8.0,67,0.00,,,0.00,TxWx,2013-08-14 23:48:00,
2013-08-14 18:50:00,88.0,76.0,29.86,SSE,157,10.0,10.0,67,0.00,,,0.00,TxWx,2013-08-14 23:50:00,
2013-08-14 18:51:00,88.0,76.0,29.86,SE,135,10.0,10.0,67,0.00,,,0.00,TxWx,2013-08-14 23:51:00,
2013-08-14 18:54:00,88.0,77.0,29.86,SE,135,13.0,13.0,69,0.00,,,0.00,TxWx,2013-08-14 23:54:00,
2013-08-14 18:55:00,88.0,77.0,29.86,SE,135,13.0,13.0,70,0.00,,,0.00,TxWx,2013-08-14 23:55:00,
2013-08-14 18:56:00,88.0,77.0,29.86,SE,135,5.0,6.0,70,0.00,,,0.00,TxWx,2013-08-14 23:56:00,
2013-08-14 18:57:00,88.0,77.0,29.86,SE,135,11.0,11.0,71,0.00,,,0.00,TxWx,2013-08-14 23:57:00,
2013-08-14 19:00:00,88.0,78.0,29.86,SSE,157,8.0,10.0,72,0.00,,,0.00,TxWx,2013-08-15 00:00:00,
2013-08-14 19:01:00,88.0,78.0,29.86,South,180,6.0,9.0,72,0.00,,,0.00,TxWx,2013-08-15 00:01:00,
2013-08-14 19:02:00,88.0,77.0,29.86,ESE,112,4.0,5.0,71,0.00,,,0.00,TxWx,2013-08-15 00:02:00,
2013-08-14 19:04:00,88.0,77.0,29.86,SE,135,10.0,11.0,70,0.00,,,0.00,TxWx,2013-08-15 00:04:00,
2013-08-14 19:06:00,88.0,77.0,29.86,SSE,157,12.0,12.0,70,0.00,,,0.00,TxWx,2013-08-15 00:06:00,
2013-08-14 19:07:00,88.0,77.0,29.86,SE,135,13.0,13.0,70,0.00,,,0.00,TxWx,2013-08-15 00:07:00,
2013-08-14 19:08:00,88.0,77.0,29.87,SSE,157,10.0,10.0,70,0.00,,,0.00,TxWx,2013-08-15 00:08:00,
2013-08-14 19:10:00,87.0,76.0,29.86,SSE,157,10.0,10.0,70,0.00,,,0.00,TxWx,2013-08-15 00:10:00,
2013-08-14 19:12:00,87.0,76.0,29.86,SE,135,8.0,10.0,70,0.00,,,0.00,TxWx,2013-08-15 00:12:00,
2013-08-14 19:13:00,87.0,76.0,29.86,SSW,202,8.0,10.0,70,0.00,,,0.00,TxWx,2013-08-15 00:13:00,
2013-08-14 19:14:00,87.0,76.0,29.86,SSE,157,6.0,6.0,71,0.00,,,0.00,TxWx,2013-08-15 00:14:00,
2013-08-14 19:15:00,87.0,76.0,29.86,South,180,5.0,5.0,71,0.00,,,0.00,TxWx,2013-08-15 00:15:00,
2013-08-14 19:17:00,87.0,76.0,29.86,SSE,157,11.0,11.0,71,0.00,,,0.00,TxWx,2013-08-15 00:17:00,
2013-08-14 19:19:00,87.0,76.0,29.86,SSW,202,8.0,8.0,71,0.00,,,0.00,TxWx,2013-08-15 00:19:00,
2013-08-14 19:20:00,87.0,76.0,29.86,SSW,202,8.0,8.0,71,0.00,,,0.00,TxWx,2013-08-15 00:20:00,
2013-08-14 19:22:00,87.0,76.0,29.86,SSE,157,11.0,11.0,71,0.00,,,0.00,TxWx,2013-08-15 00:22:00,
2013-08-14 19:25:00,87.0,76.0,29.86,SSW,202,5.0,7.0,71,0.00,,,0.00,TxWx,2013-08-15 00:25:00,
2013-08-14 19:27:00,87.0,76.0,29.86,SSE,157,6.0,10.0,71,0.00,,,0.00,TxWx,2013-08-15 00:27:00,
2013-08-14 19:28:00,87.0,77.0,29.86,SE,135,8.0,8.0,72,0.00,,,0.00,TxWx,2013-08-15 00:28:00,
2013-08-14 19:29:00,87.0,77.0,29.86,SSE,157,14.0,14.0,72,0.00,,,0.00,TxWx,2013-08-15 00:29:00,
2013-08-14 19:30:00,87.0,77.0,29.86,South,180,11.0,13.0,72,0.00,,,0.00,TxWx,2013-08-15 00:30:00,
2013-08-14 19:32:00,87.0,77.0,29.86,SSE,157,7.0,7.0,72,0.00,,,0.00,TxWx,2013-08-15 00:32:00,
2013-08-14 19:33:00,87.0,77.0,29.86,South,180,13.0,13.0,72,0.00,,,0.00,TxWx,2013-08-15 00:33:00,
2013-08-14 19:34:00,87.0,77.0,29.86,SE,135,12.0,12.0,72,0.00,,,0.00,TxWx,2013-08-15 00:34:00,
2013-08-14 19:38:00,86.0,76.0,29.86,SE,135,8.0,10.0,73,0.00,,,0.00,TxWx,2013-08-15 00:38:00,
2013-08-14 19:39:00,86.0,76.0,29.86,SSE,157,9.0,9.0,73,0.00,,,0.00,TxWx,2013-08-15 00:39:00,
2013-08-14 19:40:00,86.0,76.0,29.86,East,90,6.0,6.0,74,0.00,,,0.00,TxWx,2013-08-15 00:40:00,
2013-08-14 19:42:00,86.0,77.0,29.86,SSE,157,11.0,11.0,75,0.00,,,0.00,TxWx,2013-08-15 00:42:00,
2013-08-14 19:44:00,86.0,77.0,29.86,SE,135,6.0,6.0,75,0.00,,,0.00,TxWx,2013-08-15 00:44:00,
2013-08-14 19:45:00,86.0,77.0,29.86,SSE,157,10.0,10.0,75,0.00,,,0.00,TxWx,2013-08-15 00:45:00,
2013-08-14 19:47:00,86.0,77.0,29.86,SSW,202,9.0,12.0,75,0.00,,,0.00,TxWx,2013-08-15 00:47:00,
2013-08-14 19:48:00,86.0,77.0,29.86,South,180,9.0,11.0,75,0.00,,,0.00,TxWx,2013-08-15 00:48:00,
2013-08-14 19:50:00,86.0,77.0,29.86,SE,135,6.0,6.0,76,0.00,,,0.00,TxWx,2013-08-15 00:50:00,
2013-08-14 19:52:00,86.0,78.0,29.86,SW,225,8.0,8.0,77,0.00,,,0.00,TxWx,2013-08-15 00:52:00,
2013-08-14 19:55:00,86.0,78.0,29.86,SSE,157,8.0,8.0,77,0.00,,,0.00,TxWx,2013-08-15 00:55:00,
2013-08-14 19:56:00,86.0,78.0,29.86,SSW,202,8.0,9.0,77,0.00,,,0.00,TxWx,2013-08-15 00:56:00,
2013-08-14 19:58:00,86.0,78.0,29.86,SSE,157,12.0,12.0,78,0.00,,,0.00,TxWx,2013-08-15 00:58:00,
2013-08-14 19:59:00,85.0,78.0,29.86,South,180,6.0,6.0,79,0.00,,,0.00,TxWx,2013-08-15 00:59:00,
2013-08-14 20:00:00,85.0,78.0,29.86,SSE,157,13.0,14.0,79,0.00,,,0.00,TxWx,2013-08-15 01:00:00,
2013-08-14 20:01:00,85.0,78.0,29.86,South,180,8.0,8.0,79,0.00,,,0.00,TxWx,2013-08-15 01:01:00,
2013-08-14 20:02:00,85.0,78.0,29.86,SE,135,10.0,10.0,79,0.00,,,0.00,TxWx,2013-08-15 01:02:00,
2013-08-14 20:04:00,85.0,78.0,29.86,SSE,157,12.0,12.0,80,0.00,,,0.00,TxWx,2013-08-15 01:04:00,
2013-08-14 20:05:00,85.0,78.0,29.86,ENE,67,7.0,11.0,80,0.00,,,0.00,TxWx,2013-08-15 01:05:00,
2013-08-14 20:07:00,85.0,78.0,29.86,SSE,157,10.0,11.0,80,0.00,,,0.00,TxWx,2013-08-15 01:07:00,
2013-08-14 20:08:00,85.0,78.0,29.86,SSE,157,7.0,9.0,80,0.00,,,0.00,TxWx,2013-08-15 01:08:00,
2013-08-14 20:09:00,85.0,78.0,29.86,SSE,157,6.0,6.0,80,0.00,,,0.00,TxWx,2013-08-15 01:09:00,
2013-08-14 20:11:00,85.0,78.0,29.86,SE,135,8.0,8.0,81,0.00,,,0.00,TxWx,2013-08-15 01:11:00,
2013-08-14 20:13:00,85.0,78.0,29.86,SSE,157,10.0,10.0,81,0.00,,,0.00,TxWx,2013-08-15 01:13:00,
2013-08-14 20:17:00,85.0,79.0,29.86,SSW,202,6.0,6.0,82,0.00,,,0.00,TxWx,2013-08-15 01:17:00,
2013-08-14 20:18:00,85.0,79.0,29.86,SSE,157,8.0,8.0,82,0.00,,,0.00,TxWx,2013-08-15 01:18:00,
2013-08-14 20:19:00,85.0,79.0,29.86,South,180,8.0,9.0,82,0.00,,,0.00,TxWx,2013-08-15 01:19:00,
2013-08-14 20:20:00,85.0,79.0,29.86,South,180,8.0,8.0,82,0.00,,,0.00,TxWx,2013-08-15 01:20:00,
2013-08-14 20:22:00,85.0,79.0,29.86,SSE,157,5.0,5.0,82,0.00,,,0.00,TxWx,2013-08-15 01:22:00,
2013-08-14 20:23:00,85.0,79.0,29.86,South,180,13.0,13.0,82,0.00,,,0.00,TxWx,2013-08-15 01:23:00,
2013-08-14 20:25:00,85.0,79.0,29.86,SSE,157,8.0,10.0,82,0.00,,,0.00,TxWx,2013-08-15 01:25:00,
2013-08-14 20:26:00,85.0,79.0,29.86,SSW,202,7.0,8.0,82,0.00,,,0.00,TxWx,2013-08-15 01:26:00,
2013-08-14 20:28:00,85.0,79.0,29.86,SSE,157,12.0,13.0,82,0.00,,,0.00,TxWx,2013-08-15 01:28:00,
2013-08-14 20:30:00,85.0,79.0,29.86,South,180,10.0,11.0,82,0.00,,,0.00,TxWx,2013-08-15 01:30:00,
2013-08-14 20:31:00,85.0,79.0,29.86,SSE,157,9.0,11.0,82,0.00,,,0.00,TxWx,2013-08-15 01:31:00,
2013-08-14 20:34:00,84.0,78.0,29.86,South,180,10.0,10.0,83,0.00,,,0.00,TxWx,2013-08-15 01:34:00,
2013-08-14 20:35:00,84.0,78.0,29.86,South,180,8.0,8.0,83,0.00,,,0.00,TxWx,2013-08-15 01:35:00,
2013-08-14 20:36:00,84.0,78.0,29.86,South,180,11.0,14.0,83,0.00,,,0.00,TxWx,2013-08-15 01:36:00,
2013-08-14 20:38:00,84.0,78.0,29.86,South,180,10.0,10.0,83,0.00,,,0.00,TxWx,2013-08-15 01:38:00,
2013-08-14 20:40:00,84.0,78.0,29.86,SSW,202,8.0,8.0,83,0.00,,,0.00,TxWx,2013-08-15 01:40:00,
2013-08-14 20:41:00,84.0,78.0,29.86,SE,135,12.0,13.0,84,0.00,,,0.00,TxWx,2013-08-15 01:41:00,
2013-08-14 20:43:00,84.0,78.0,29.86,SSW,202,13.0,13.0,84,0.00,,,0.00,TxWx,2013-08-15 01:43:00,
2013-08-14 20:45:00,84.0,79.0,29.86,South,180,6.0,6.0,84,0.00,,,0.00,TxWx,2013-08-15 01:45:00,
2013-08-14 20:46:00,84.0,79.0,29.86,SE,135,5.0,7.0,84,0.00,,,0.00,TxWx,2013-08-15 01:46:00,
2013-08-14 20:51:00,84.0,79.0,29.86,SSE,157,3.0,4.0,85,0.00,,,0.00,TxWx,2013-08-15 01:51:00,
2013-08-14 20:52:00,84.0,79.0,29.86,SSW,202,8.0,8.0,85,0.00,,,0.00,TxWx,2013-08-15 01:52:00,
2013-08-14 20:53:00,84.0,79.0,29.86,South,180,4.0,5.0,85,0.00,,,0.00,TxWx,2013-08-15 01:53:00,
2013-08-14 20:54:00,84.0,79.0,29.86,SE,135,14.0,14.0,85,0.00,,,0.00,TxWx,2013-08-15 01:54:00,
2013-08-14 20:56:00,84.0,79.0,29.86,SSE,157,5.0,6.0,86,0.00,,,0.00,TxWx,2013-08-15 01:56:00,
2013-08-14 20:57:00,84.0,79.0,29.86,SE,135,10.0,10.0,86,0.00,,,0.00,TxWx,2013-08-15 01:57:00,
2013-08-14 21:01:00,84.0,79.0,29.86,South,180,5.0,5.0,86,0.00,,,0.00,TxWx,2013-08-15 02:01:00,
2013-08-14 21:02:00,84.0,79.0,29.86,SSE,157,7.0,7.0,86,0.00,,,0.00,TxWx,2013-08-15 02:02:00,
2013-08-14 21:03:00,84.0,79.0,29.86,SSE,157,5.0,5.0,86,0.00,,,0.00,TxWx,2013-08-15 02:03:00,
2013-08-14 21:05:00,84.0,79.0,29.86,SE,135,9.0,11.0,86,0.00,,,0.00,TxWx,2013-08-15 02:05:00,
2013-08-14 21:07:00,84.0,80.0,29.87,South,180,8.0,8.0,87,0.00,,,0.00,TxWx,2013-08-15 02:07:00,
2013-08-14 21:10:00,84.0,80.0,29.87,SSE,157,5.0,5.0,87,0.00,,,0.00,TxWx,2013-08-15 02:10:00,
2013-08-14 21:13:00,84.0,80.0,29.87,SE,135,6.0,6.0,87,0.00,,,0.00,TxWx,2013-08-15 02:13:00,
2013-08-14 21:15:00,84.0,80.0,29.88,SSE,157,10.0,10.0,87,0.00,,,0.00,TxWx,2013-08-15 02:15:00,
2013-08-14 21:16:00,84.0,80.0,29.88,ESE,112,3.0,3.0,87,0.00,,,0.00,TxWx,2013-08-15 02:16:00,
2013-08-14 21:18:00,84.0,80.0,29.87,SE,135,8.0,9.0,87,0.00,,,0.00,TxWx,2013-08-15 02:18:00,
2013-08-14 21:20:00,84.0,80.0,29.88,SE,135,4.0,4.0,87,0.00,,,0.00,TxWx,2013-08-15 02:20:00,
2013-08-14 21:21:00,84.0,80.0,29.87,SSE,157,6.0,6.0,87,0.00,,,0.00,TxWx,2013-08-15 02:21:00,
2013-08-14 21:22:00,84.0,80.0,29.88,SSE,157,8.0,8.0,87,0.00,,,0.00,TxWx,2013-08-15 02:22:00,
2013-08-14 21:23:00,84.0,80.0,29.87,SSW,202,8.0,9.0,87,0.00,,,0.00,TxWx,2013-08-15 02:23:00,
2013-08-14 21:25:00,84.0,80.0,29.88,SSE,157,5.0,6.0,87,0.00,,,0.00,TxWx,2013-08-15 02:25:00,
2013-08-14 21:26:00,84.0,80.0,29.88,South,180,8.0,8.0,87,0.00,,,0.00,TxWx,2013-08-15 02:26:00,
2013-08-14 21:27:00,84.0,80.0,29.88,SE,135,8.0,10.0,87,0.00,,,0.00,TxWx,2013-08-15 02:27:00,
2013-08-14 21:28:00,84.0,80.0,29.88,SW,225,4.0,5.0,87,0.00,,,0.00,TxWx,2013-08-15 02:28:00,
2013-08-14 21:29:00,84.0,80.0,29.88,South,180,3.0,3.0,87,0.00,,,0.00,TxWx,2013-08-15 02:29:00,
2013-08-14 21:32:00,84.0,80.0,29.88,South,180,6.0,6.0,87,0.00,,,0.00,TxWx,2013-08-15 02:32:00,
2013-08-14 21:34:00,84.0,80.0,29.88,SSW,202,13.0,13.0,87,0.00,,,0.00,TxWx,2013-08-15 02:34:00,
2013-08-14 21:35:00,84.0,80.0,29.88,SE,135,8.0,9.0,87,0.00,,,0.00,TxWx,2013-08-15 02:35:00,
2013-08-14 21:38:00,84.0,80.0,29.88,SSE,157,11.0,11.0,87,0.00,,,0.00,TxWx,2013-08-15 02:38:00,
2013-08-14 21:40:00,84.0,80.0,29.88,SSW,202,8.0,8.0,87,0.00,,,0.00,TxWx,2013-08-15 02:40:00,
2013-08-14 21:41:00,84.0,80.0,29.88,South,180,5.0,6.0,87,0.00,,,0.00,TxWx,2013-08-15 02:41:00,
2013-08-14 21:43:00,84.0,80.0,29.89,SSE,157,4.0,5.0,87,0.00,,,0.00,TxWx,2013-08-15 02:43:00,
2013-08-14 21:45:00,84.0,79.0,29.89,South,180,5.0,5.0,86,0.00,,,0.00,TxWx,2013-08-15 02:45:00,
2013-08-14 21:46:00,84.0,79.0,29.89,SSE,157,8.0,8.0,86,0.00,,,0.00,TxWx,2013-08-15 02:46:00,
2013-08-14 21:49:00,84.0,79.0,29.89,SE,135,5.0,5.0,86,0.00,,,0.00,TxWx,2013-08-15 02:49:00,
2013-08-14 21:50:00,84.0,79.0,29.89,SSE,157,8.0,8.0,86,0.00,,,0.00,TxWx,2013-08-15 02:50:00,
2013-08-14 21:52:00,84.0,79.0,29.89,SE,135,8.0,9.0,86,0.00,,,0.00,TxWx,2013-08-15 02:52:00,
2013-08-14 21:53:00,84.0,79.0,29.89,SSW,202,6.0,6.0,86,0.00,,,0.00,TxWx,2013-08-15 02:53:00,
2013-08-14 21:55:00,84.0,79.0,29.90,SSE,157,13.0,13.0,86,0.00,,,0.00,TxWx,2013-08-15 02:55:00,
2013-08-14 21:57:00,84.0,79.0,29.90,South,180,5.0,5.0,86,0.00,,,0.00,TxWx,2013-08-15 02:57:00,
2013-08-14 21:58:00,84.0,79.0,29.90,SSE,157,11.0,11.0,86,0.00,,,0.00,TxWx,2013-08-15 02:58:00,
2013-08-14 21:59:00,84.0,79.0,29.90,SSW,202,7.0,7.0,86,0.00,,,0.00,TxWx,2013-08-15 02:59:00,
2013-08-14 22:00:00,84.0,79.0,29.90,ESE,112,5.0,7.0,86,0.00,,,0.00,TxWx,2013-08-15 03:00:00,
2013-08-14 22:01:00,84.0,79.0,29.90,SSE,157,6.0,6.0,86,0.00,,,0.00,TxWx,2013-08-15 03:01:00,
2013-08-14 22:04:00,84.0,79.0,29.90,SE,135,5.0,6.0,86,0.00,,,0.00,TxWx,2013-08-15 03:04:00,
2013-08-14 22:05:00,84.0,79.0,29.90,South,180,5.0,7.0,86,0.00,,,0.00,TxWx,2013-08-15 03:05:00,
2013-08-14 22:06:00,84.0,79.0,29.90,South,180,10.0,10.0,86,0.00,,,0.00,TxWx,2013-08-15 03:06:00,
2013-08-14 22:09:00,84.0,80.0,29.90,SSE,157,8.0,8.0,87,0.00,,,0.00,TxWx,2013-08-15 03:09:00,
2013-08-14 22:11:00,84.0,80.0,29.90,SSE,157,4.0,5.0,87,0.00,,,0.00,TxWx,2013-08-15 03:11:00,
2013-08-14 22:13:00,84.0,80.0,29.90,SSE,157,9.0,10.0,87,0.00,,,0.00,TxWx,2013-08-15 03:13:00,
2013-08-14 22:14:00,84.0,80.0,29.90,SSW,202,8.0,9.0,87,0.00,,,0.00,TxWx,2013-08-15 03:14:00,
2013-08-14 22:17:00,83.0,78.0,29.90,WSW,247,8.0,9.0,86,0.00,,,0.00,TxWx,2013-08-15 03:17:00,
2013-08-14 22:18:00,84.0,78.0,29.91,SSE,157,11.0,11.0,86,0.00,,,0.00,TxWx,2013-08-15 03:18:00,
2013-08-14 22:20:00,83.0,78.0,29.90,SE,135,8.0,10.0,86,0.00,,,0.00,TxWx,2013-08-15 03:20:00,
2013-08-14 22:23:00,83.0,78.0,29.90,SSW,202,7.0,8.0,86,0.00,,,0.00,TxWx,2013-08-15 03:23:00,
2013-08-14 22:24:00,83.0,78.0,29.91,SSW,202,12.0,12.0,86,0.00,,,0.00,TxWx,2013-08-15 03:24:00,
2013-08-14 22:26:00,83.0,78.0,29.91,SSE,157,8.0,9.0,86,0.00,,,0.00,TxWx,2013-08-15 03:26:00,
2013-08-14 22:29:00,84.0,79.0,29.91,SSE,157,5.0,5.0,86,0.00,,,0.00,TxWx,2013-08-15 03:29:00,
2013-08-14 22:30:00,83.0,78.0,29.91,SSE,157,8.0,8.0,86,0.00,,,0.00,TxWx,2013-08-15 03:30:00,
2013-08-14 22:31:00,83.0,78.0,29.91,SSW,202,6.0,7.0,86,0.00,,,0.00,TxWx,2013-08-15 03:31:00,
2013-08-14 22:34:00,83.0,78.0,29.91,South,180,11.0,12.0,86,0.00,,,0.00,TxWx,2013-08-15 03:34:00,
2013-08-14 22:35:00,83.0,78.0,29.91,South,180,6.0,6.0,86,0.00,,,0.00,TxWx,2013-08-15 03:35:00,
2013-08-14 22:36:00,83.0,78.0,29.91,SSE,157,7.0,7.0,86,0.00,,,0.00,TxWx,2013-08-15 03:36:00,
2013-08-14 22:37:00,83.0,78.0,29.91,South,180,5.0,6.0,86,0.00,,,0.00,TxWx,2013-08-15 03:37:00,
2013-08-14 22:39:00,83.0,79.0,29.91,SE,135,7.0,8.0,87,0.00,,,0.00,TxWx,2013-08-15 03:39:00,
2013-08-14 22:40:00,83.0,78.0,29.91,SSE,157,11.0,12.0,86,0.00,,,0.00,TxWx,2013-08-15 03:40:00,
2013-08-14 22:41:00,83.0,78.0,29.91,SE,135,6.0,6.0,86,0.00,,,0.00,TxWx,2013-08-15 03:41:00,
2013-08-14 22:42:00,83.0,78.0,29.91,South,180,6.0,6.0,86,0.00,,,0.00,TxWx,2013-08-15 03:42:00,
2013-08-14 22:46:00,83.0,78.0,29.91,SE,135,7.0,10.0,86,0.00,,,0.00,TxWx,2013-08-15 03:46:00,
2013-08-14 22:47:00,83.0,78.0,29.91,South,180,8.0,8.0,86,0.00,,,0.00,TxWx,2013-08-15 03:47:00,
2013-08-14 22:48:00,83.0,78.0,29.91,South,180,9.0,9.0,86,0.00,,,0.00,TxWx,2013-08-15 03:48:00,
2013-08-14 22:52:00,83.0,78.0,29.92,South,180,6.0,6.0,86,0.00,,,0.00,TxWx,2013-08-15 03:52:00,
2013-08-14 22:53:00,83.0,78.0,29.91,South,180,6.0,6.0,86,0.00,,,0.00,TxWx,2013-08-15 03:53:00,
2013-08-14 22:54:00,83.0,78.0,29.91,SSW,202,6.0,6.0,86,0.00,,,0.00,TxWx,2013-08-15 03:54:00,
2013-08-14 22:55:00,83.0,78.0,29.91,SSW,202,7.0,7.0,86,0.00,,,0.00,TxWx,2013-08-15 03:55:00,
2013-08-14 22:58:00,83.0,78.0,29.91,SSW,202,10.0,10.0,86,0.00,,,0.00,TxWx,2013-08-15 03:58:00,
2013-08-14 23:00:00,83.0,78.0,29.91,SSW,202,8.0,8.0,86,0.00,,,0.00,TxWx,2013-08-15 04:00:00,
2013-08-14 23:01:00,83.0,78.0,29.91,SSE,157,5.0,6.0,86,0.00,,,0.00,TxWx,2013-08-15 04:01:00,
2013-08-14 23:02:00,83.0,78.0,29.91,South,180,9.0,9.0,86,0.00,,,0.00,TxWx,2013-08-15 04:02:00,
2013-08-14 23:03:00,83.0,78.0,29.91,SSW,202,9.0,10.0,86,0.00,,,0.00,TxWx,2013-08-15 04:03:00,
2013-08-14 23:06:00,83.0,78.0,29.91,SSW,202,8.0,8.0,86,0.00,,,0.00,TxWx,2013-08-15 04:06:00,
2013-08-14 23:08:00,83.0,78.0,29.91,SSW,202,6.0,7.0,86,0.00,,,0.00,TxWx,2013-08-15 04:08:00,
2013-08-14 23:11:00,83.0,78.0,29.91,South,180,6.0,8.0,86,0.00,,,0.00,TxWx,2013-08-15 04:11:00,
2013-08-14 23:12:00,83.0,79.0,29.91,SSE,157,7.0,7.0,87,0.00,,,0.00,TxWx,2013-08-15 04:12:00,
2013-08-14 23:14:00,83.0,79.0,29.91,South,180,5.0,5.0,87,0.00,,,0.00,TxWx,2013-08-15 04:14:00,
2013-08-14 23:16:00,83.0,79.0,29.91,SE,135,5.0,5.0,87,0.00,,,0.00,TxWx,2013-08-15 04:16:00,
2013-08-14 23:18:00,83.0,79.0,29.92,SE,135,6.0,6.0,87,0.00,,,0.00,TxWx,2013-08-15 04:18:00,
2013-08-14 23:19:00,83.0,79.0,29.92,SSE,157,8.0,8.0,87,0.00,,,0.00,TxWx,2013-08-15 04:19:00,
2013-08-14 23:21:00,83.0,78.0,29.92,SSW,202,6.0,7.0,86,0.00,,,0.00,TxWx,2013-08-15 04:21:00,
2013-08-14 23:22:00,83.0,78.0,29.92,SE,135,5.0,5.0,86,0.00,,,0.00,TxWx,2013-08-15 04:22:00,
2013-08-14 23:23:00,83.0,78.0,29.91,South,180,6.0,8.0,86,0.00,,,0.00,TxWx,2013-08-15 04:23:00,
2013-08-14 23:25:00,83.0,78.0,29.91,South,180,9.0,9.0,86,0.00,,,0.00,TxWx,2013-08-15 04:25:00,
2013-08-14 23:26:00,83.0,78.0,29.91,SSE,157,7.0,8.0,86,0.00,,,0.00,TxWx,2013-08-15 04:26:00,
2013-08-14 23:28:00,83.0,78.0,29.92,SSE,157,8.0,8.0,86,0.00,,,0.00,TxWx,2013-08-15 04:28:00,
2013-08-14 23:30:00,83.0,78.0,29.91,SSE,157,5.0,5.0,86,0.00,,,0.00,TxWx,2013-08-15 04:30:00,
2013-08-14 23:32:00,83.0,78.0,29.92,South,180,7.0,8.0,86,0.00,,,0.00,TxWx,2013-08-15 04:32:00,
2013-08-14 23:34:00,83.0,78.0,29.91,SSE,157,8.0,10.0,86,0.00,,,0.00,TxWx,2013-08-15 04:34:00,
2013-08-14 23:36:00,83.0,78.0,29.91,SSE,157,5.0,5.0,86,0.00,,,0.00,TxWx,2013-08-15 04:36:00,
2013-08-14 23:38:00,83.0,78.0,29.91,SE,135,4.0,5.0,86,0.00,,,0.00,TxWx,2013-08-15 04:38:00,
2013-08-14 23:39:00,83.0,78.0,29.91,SSE,157,9.0,9.0,86,0.00,,,0.00,TxWx,2013-08-15 04:39:00,
2013-08-14 23:41:00,83.0,78.0,29.92,South,180,6.0,6.0,86,0.00,,,0.00,TxWx,2013-08-15 04:41:00,
2013-08-14 23:42:00,83.0,78.0,29.92,SE,135,3.0,3.0,86,0.00,,,0.00,TxWx,2013-08-15 04:42:00,
2013-08-14 23:43:00,83.0,78.0,29.92,SSW,202,6.0,6.0,86,0.00,,,0.00,TxWx,2013-08-15 04:43:00,
2013-08-14 23:45:00,83.0,78.0,29.92,SW,225,8.0,9.0,85,0.00,,,0.00,TxWx,2013-08-15 04:45:00,
2013-08-14 23:47:00,83.0,78.0,29.92,South,180,5.0,5.0,85,0.00,,,0.00,TxWx,2013-08-15 04:47:00,
2013-08-14 23:48:00,83.0,78.0,29.92,South,180,6.0,6.0,85,0.00,,,0.00,TxWx,2013-08-15 04:48:00,
2013-08-14 23:50:00,83.0,78.0,29.92,SSW,202,5.0,5.0,85,0.00,,,0.00,TxWx,2013-08-15 04:50:00,
2013-08-14 23:51:00,83.0,78.0,29.92,SW,225,7.0,8.0,85,0.00,,,0.00,TxWx,2013-08-15 04:51:00,
2013-08-14 23:52:00,83.0,78.0,29.92,SSE,157,5.0,5.0,85,0.00,,,0.00,TxWx,2013-08-15 04:52:00,
2013-08-14 23:53:00,83.0,78.0,29.91,SSE,157,4.0,4.0,85,0.00,,,0.00,TxWx,2013-08-15 04:53:00,
2013-08-14 23:54:00,83.0,78.0,29.92,SSE,157,6.0,6.0,85,0.00,,,0.00,TxWx,2013-08-15 04:54:00,
2013-08-14 23:55:00,83.0,78.0,29.92,SSE,157,6.0,6.0,85,0.00,,,0.00,TxWx,2013-08-15 04:55:00,
2013-08-14 23:58:00,83.0,78.0,29.92,SSE,157,5.0,5.0,85,0.00,,,0.00,TxWx,2013-08-15 04:58:00,
2013-08-14 23:59:00,83.0,78.0,29.92,South,180,5.0,5.0,85,0.00,,,0.00,TxWx,2013-08-15 04:59:00,